| time (UTC) | temp F | wind direction | speed MPH | gust MPH | rain 1hr in | rain 24hr in | rain mn in | humidity % | barometer mb |
| 20260507182233 | 91 | 68 | 0.0 | 0.0 | 0.00 | 0.00 | 0.00 | 14 | 1012.6 |
| 20260507182118 | 90 | 67 | 0.0 | 0.0 | 0.00 | 0.00 | 0.00 | 12 | 1012.6 |
| 20260507182029 | 90 | 63 | 0.0 | 0.0 | 0.00 | 0.00 | 0.00 | 13 | 1012.6 |
| 20260507181930 | 90 | 63 | 0.0 | 0.0 | 0.00 | 0.00 | 0.00 | 13 | 1012.7 |
| 20260507181831 | 90 | 63 | 0.0 | 0.0 | 0.00 | 0.00 | 0.00 | 13 | 1012.6 |
| 20260507181741 | 90 | 63 | 0.0 | 0.0 | 0.00 | 0.00 | 0.00 | 12 | 1012.6 |
| 20260507181623 | 89 | 62 | 0.0 | 0.0 | 0.00 | 0.00 | 0.00 | 12 | 1012.7 |
| 20260507181529 | 89 | 62 | 0.0 | 0.0 | 0.00 | 0.00 | 0.00 | 16 | 1012.6 |
| 20260507181437 | 89 | 62 | 0.0 | 0.0 | 0.00 | 0.00 | 0.00 | 13 | 1012.7 |
| 20260507181318 | 89 | 142 | 0.0 | 0.0 | 0.00 | 0.00 | 0.00 | 15 | 1012.7 |
| 20260507181221 | 89 | 142 | 0.0 | 0.0 | 0.00 | 0.00 | 0.00 | 12 | 1012.7 |
| 20260507181138 | 88 | 142 | 0.0 | 0.0 | 0.00 | 0.00 | 0.00 | 14 | 1012.7 |
| 20260507181018 | 88 | 142 | 0.0 | 0.0 | 0.00 | 0.00 | 0.00 | 13 | 1012.7 |
| 20260507180920 | 88 | 142 | 0.0 | 0.0 | 0.00 | 0.00 | 0.00 | 12 | 1012.7 |
| 20260507180833 | 89 | 142 | 0.0 | 0.0 | 0.00 | 0.00 | 0.00 | 14 | 1012.7 |
| 20260507180735 | 89 | 142 | 0.0 | 0.0 | 0.00 | 0.00 | 0.00 | 14 | 1012.8 |
| 20260507180644 | 89 | 142 | 0.0 | 0.0 | 0.00 | 0.00 | 0.00 | 11 | 1012.7 |
| 20260507180524 | 89 | 143 | 0.0 | 0.0 | 0.00 | 0.00 | 0.00 | 12 | 1012.8 |
| 20260507180427 | 89 | 143 | 0.0 | 1.0 | 0.00 | 0.00 | 0.00 | 12 | 1012.7 |
| 20260507180336 | 89 | 143 | 0.0 | 1.0 | 0.00 | 0.00 | 0.00 | 12 | 1012.8 |
| 20260507180241 | 89 | 145 | 0.0 | 1.0 | 0.00 | 0.00 | 0.00 | 13 | 1012.7 |
| 20260507180121 | 89 | 146 | 0.0 | 1.0 | 0.00 | 0.00 | 0.00 | 13 | 1012.7 |
| 20260507180043 | 89 | 146 | 0.0 | 1.0 | 0.00 | 0.00 | 0.00 | 13 | 1012.7 |
| 20260507175934 | 88 | 146 | 0.0 | 1.0 | 0.00 | 0.00 | 0.00 | 12 | 1012.6 |
| 20260507175816 | 88 | 146 | 0.0 | 1.0 | 0.00 | 0.00 | 0.00 | 13 | 1012.6 |
| 20260507175726 | 88 | 146 | 0.0 | 1.0 | 0.00 | 0.00 | 0.00 | 13 | 1012.7 |
| 20260507175647 | 88 | 146 | 0.0 | 1.0 | 0.00 | 0.00 | 0.00 | 13 | 1012.7 |
| 20260507175540 | 89 | 146 | 0.0 | 0.0 | 0.00 | 0.00 | 0.00 | 13 | 1012.7 |
| 20260507175421 | 89 | 146 | 0.0 | 0.0 | 0.00 | 0.00 | 0.00 | 14 | 1012.8 |
| 20260507175322 | 89 | 146 | 0.0 | 4.0 | 0.00 | 0.00 | 0.00 | 13 | 1012.8 |
| 20260507175224 | 88 | 146 | 0.0 | 4.0 | 0.00 | 0.00 | 0.00 | 15 | 1012.8 |
| 20260507175133 | 88 | 147 | 0.0 | 4.0 | 0.00 | 0.00 | 0.00 | 16 | 1012.8 |
| 20260507175020 | 87 | 147 | 0.0 | 4.0 | 0.00 | 0.00 | 0.00 | 13 | 1012.9 |
| 20260507174922 | 87 | 148 | 0.0 | 4.0 | 0.00 | 0.00 | 0.00 | 13 | 1012.8 |
| 20260507174824 | 87 | 148 | 0.0 | 4.0 | 0.00 | 0.00 | 0.00 | 12 | 1012.8 |
| 20260507174733 | 87 | 148 | 0.0 | 4.0 | 0.00 | 0.00 | 0.00 | 13 | 1012.8 |
| 20260507174634 | 87 | 148 | 1.0 | 4.0 | 0.00 | 0.00 | 0.00 | 12 | 1012.8 |
| 20260507174536 | 87 | 167 | 2.0 | 4.0 | 0.00 | 0.00 | 0.00 | 13 | 1012.7 |
| 20260507174444 | 87 | 120 | 1.0 | 3.0 | 0.00 | 0.00 | 0.00 | 12 | 1012.8 |
| 20260507174328 | 87 | 120 | 0.0 | 3.0 | 0.00 | 0.00 | 0.00 | 13 | 1012.8 |
| 20260507174239 | 87 | 120 | 0.0 | 3.0 | 0.00 | 0.00 | 0.00 | 13 | 1012.8 |
| 20260507174121 | 87 | 120 | 0.0 | 3.0 | 0.00 | 0.00 | 0.00 | 14 | 1012.9 |
| 20260507174022 | 87 | 120 | 1.0 | 3.0 | 0.00 | 0.00 | 0.00 | 14 | 1012.8 |
| 20260507173923 | 88 | 120 | 1.0 | 3.0 | 0.00 | 0.00 | 0.00 | 14 | 1012.8 |
| 20260507173831 | 88 | 120 | 1.0 | 2.0 | 0.00 | 0.00 | 0.00 | 14 | 1012.8 |
| 20260507173718 | 88 | 118 | 0.0 | 1.0 | 0.00 | 0.00 | 0.00 | 14 | 1012.8 |
| 20260507173621 | 88 | 117 | 0.0 | 0.0 | 0.00 | 0.00 | 0.00 | 15 | 1012.9 |
| 20260507173524 | 87 | 117 | 0.0 | 0.0 | 0.00 | 0.00 | 0.00 | 15 | 1012.9 |
| 20260507173433 | 87 | 117 | 0.0 | 1.0 | 0.00 | 0.00 | 0.00 | 14 | 1013.0 |
| 20260507173315 | 88 | 118 | 0.0 | 3.0 | 0.00 | 0.00 | 0.00 | 15 | 1013.1 |
| 20260507173238 | 88 | 117 | 0.0 | 3.0 | 0.00 | 0.00 | 0.00 | 16 | 1013.0 |
| 20260507173129 | 87 | 119 | 0.0 | 3.0 | 0.00 | 0.00 | 0.00 | 16 | 1013.0 |
| 20260507173029 | 87 | 119 | 0.0 | 3.0 | 0.00 | 0.00 | 0.00 | 16 | 1013.1 |
| 20260507172937 | 87 | 119 | 0.0 | 3.0 | 0.00 | 0.00 | 0.00 | 16 | 1013.1 |
| 20260507172820 | 87 | 119 | 0.0 | 3.0 | 0.00 | 0.00 | 0.00 | 16 | 1013.0 |
| 20260507172722 | 86 | 118 | 0.0 | 3.0 | 0.00 | 0.00 | 0.00 | 16 | 1013.0 |
| 20260507172622 | 86 | 117 | 1.0 | 4.0 | 0.00 | 0.00 | 0.00 | 15 | 1013.0 |
| 20260507172531 | 86 | 117 | 1.0 | 4.0 | 0.00 | 0.00 | 0.00 | 14 | 1013.0 |
| 20260507172417 | 86 | 117 | 0.0 | 4.0 | 0.00 | 0.00 | 0.00 | 14 | 1013.1 |
| 20260507172325 | 87 | 117 | 1.0 | 5.0 | 0.00 | 0.00 | 0.00 | 15 | 1013.0 |
| 20260507172226 | 87 | 117 | 1.0 | 5.0 | 0.00 | 0.00 | 0.00 | 16 | 1013.1 |
| 20260507172128 | 87 | 117 | 1.0 | 5.0 | 0.00 | 0.00 | 0.00 | 16 | 1013.1 |
| 20260507172036 | 87 | 117 | 1.0 | 5.0 | 0.00 | 0.00 | 0.00 | 15 | 1013.1 |
| 20260507171936 | 87 | 123 | 1.0 | 5.0 | 0.00 | 0.00 | 0.00 | 18 | 1013.1 |
| 20260507171821 | 86 | 123 | 2.0 | 5.0 | 0.00 | 0.00 | 0.00 | 18 | 1013.1 |
| 20260507171730 | 86 | 200 | 1.0 | 5.0 | 0.00 | 0.00 | 0.00 | 17 | 1013.1 |
| 20260507171652 | 86 | 203 | 1.0 | 5.0 | 0.00 | 0.00 | 0.00 | 17 | 1013.1 |
| 20260507171540 | 86 | 203 | 1.0 | 5.0 | 0.00 | 0.00 | 0.00 | 17 | 1013.1 |
| 20260507171422 | 86 | 204 | 1.0 | 4.0 | 0.00 | 0.00 | 0.00 | 17 | 1013.2 |
| 20260507171323 | 86 | 205 | 1.0 | 4.0 | 0.00 | 0.00 | 0.00 | 16 | 1013.1 |
| 20260507171236 | 86 | 205 | 0.0 | 4.0 | 0.00 | 0.00 | 0.00 | 16 | 1013.1 |
| 20260507171118 | 86 | 163 | 0.0 | 4.0 | 0.00 | 0.00 | 0.00 | 17 | 1013.1 |
| 20260507171018 | 86 | 163 | 2.0 | 4.0 | 0.00 | 0.00 | 0.00 | 16 | 1013.2 |
| 20260507170921 | 86 | 164 | 2.0 | 4.0 | 0.00 | 0.00 | 0.00 | 16 | 1013.2 |
| 20260507170831 | 85 | 165 | 1.0 | 4.0 | 0.00 | 0.00 | 0.00 | 17 | 1013.2 |
| 20260507170732 | 85 | 167 | 0.0 | 4.0 | 0.00 | 0.00 | 0.00 | 16 | 1013.2 |
| 20260507170619 | 86 | 167 | 1.0 | 4.0 | 0.00 | 0.00 | 0.00 | 18 | 1013.3 |
| 20260507170548 | 86 | 167 | 1.0 | 4.0 | 0.00 | 0.00 | 0.00 | 17 | 1013.3 |
| 20260507170429 | 85 | 169 | 1.0 | 4.0 | 0.00 | 0.00 | 0.00 | 18 | 1013.3 |
| 20260507170331 | 86 | 170 | 0.0 | 4.0 | 0.00 | 0.00 | 0.00 | 18 | 1013.4 |
| 20260507170241 | 86 | 171 | 0.0 | 3.0 | 0.00 | 0.00 | 0.00 | 20 | 1013.4 |
| 20260507170122 | 85 | 171 | 0.0 | 3.0 | 0.00 | 0.00 | 0.00 | 20 | 1013.4 |
| 20260507170104 | 85 | 172 | 0.0 | 3.0 | 0.00 | 0.00 | 0.00 | 18 | 1013.4 |
| 20260507165917 | 85 | 172 | 1.0 | 3.0 | 0.00 | 0.00 | 0.00 | 18 | 1013.4 |
| 20260507165819 | 84 | 172 | 1.0 | 3.0 | 0.00 | 0.00 | 0.00 | 18 | 1013.4 |
| 20260507165721 | 84 | 280 | 0.0 | 4.0 | 0.00 | 0.00 | 0.00 | 19 | 1013.4 |
| 20260507165629 | 84 | 281 | 0.0 | 4.0 | 0.00 | 0.00 | 0.00 | 18 | 1013.4 |
| 20260507165531 | 84 | 282 | 0.0 | 4.0 | 0.00 | 0.00 | 0.00 | 19 | 1013.2 |
| 20260507165417 | 84 | 199 | 0.0 | 4.0 | 0.00 | 0.00 | 0.00 | 19 | 1013.4 |
| 20260507165346 | 84 | 199 | 0.0 | 4.0 | 0.00 | 0.00 | 0.00 | 20 | 1013.4 |
| 20260507165227 | 84 | 199 | 0.0 | 4.0 | 0.00 | 0.00 | 0.00 | 20 | 1013.4 |
| 20260507165125 | 84 | 199 | 0.0 | 4.0 | 0.00 | 0.00 | 0.00 | 21 | 1013.5 |
| 20260507165034 | 83 | 199 | 1.0 | 4.0 | 0.00 | 0.00 | 0.00 | 19 | 1013.6 |
| 20260507164917 | 83 | 199 | 2.0 | 4.0 | 0.00 | 0.00 | 0.00 | 19 | 1013.6 |
| 20260507164820 | 83 | 204 | 1.0 | 2.0 | 0.00 | 0.00 | 0.00 | 20 | 1013.5 |
| 20260507164733 | 83 | 207 | 0.0 | 2.0 | 0.00 | 0.00 | 0.00 | 20 | 1013.6 |
| 20260507164615 | 83 | 207 | 0.0 | 2.0 | 0.00 | 0.00 | 0.00 | 21 | 1013.4 |
| 20260507164518 | 83 | 207 | 0.0 | 2.0 | 0.00 | 0.00 | 0.00 | 22 | 1013.5 |
| 20260507164426 | 83 | 207 | 0.0 | 2.0 | 0.00 | 0.00 | 0.00 | 22 | 1013.6 |
| 20260507164348 | 83 | 207 | 0.0 | 2.0 | 0.00 | 0.00 | 0.00 | 22 | 1013.5 |
| 20260507164235 | 82 | 207 | 0.0 | 2.0 | 0.00 | 0.00 | 0.00 | 23 | 1013.5 |
| 20260507164120 | 82 | 207 | 0.0 | 2.0 | 0.00 | 0.00 | 0.00 | 22 | 1013.5 |
| 20260507164022 | 82 | 207 | 0.0 | 2.0 | 0.00 | 0.00 | 0.00 | 24 | 1013.6 |
| 20260507163924 | 82 | 207 | 0.0 | 2.0 | 0.00 | 0.00 | 0.00 | 24 | 1013.7 |
| 20260507163833 | 82 | 207 | 0.0 | 2.0 | 0.00 | 0.00 | 0.00 | 22 | 1013.6 |
| 20260507163735 | 82 | 207 | 1.0 | 2.0 | 0.00 | 0.00 | 0.00 | 21 | 1013.5 |
| 20260507163616 | 82 | 208 | 0.0 | 2.0 | 0.00 | 0.00 | 0.00 | 22 | 1013.6 |
| 20260507163520 | 82 | 208 | 0.0 | 2.0 | 0.00 | 0.00 | 0.00 | 23 | 1013.5 |
| 20260507163429 | 82 | 208 | 0.0 | 2.0 | 0.00 | 0.00 | 0.00 | 23 | 1013.6 |
| 20260507163330 | 81 | 208 | 0.0 | 2.0 | 0.00 | 0.00 | 0.00 | 23 | 1013.6 |
| 20260507163241 | 81 | 208 | 0.0 | 2.0 | 0.00 | 0.00 | 0.00 | 23 | 1013.6 |
| 20260507163141 | 81 | 208 | 0.0 | 3.0 | 0.00 | 0.00 | 0.00 | 23 | 1013.6 |
| 20260507163021 | 81 | 198 | 0.0 | 3.0 | 0.00 | 0.00 | 0.00 | 23 | 1013.6 |
| 20260507162930 | 81 | 203 | 0.0 | 3.0 | 0.00 | 0.00 | 0.00 | 24 | 1013.6 |
| 20260507162855 | 81 | 203 | 0.0 | 3.0 | 0.00 | 0.00 | 0.00 | 23 | 1013.5 |
| 20260507162722 | 81 | 205 | 0.0 | 3.0 | 0.00 | 0.00 | 0.00 | 23 | 1013.5 |
| 20260507162623 | 81 | 205 | 0.0 | 3.0 | 0.00 | 0.00 | 0.00 | 24 | 1013.5 |
| 20260507162523 | 81 | 205 | 0.0 | 3.0 | 0.00 | 0.00 | 0.00 | 24 | 1013.5 |
| 20260507162452 | 81 | 205 | 1.0 | 4.0 | 0.00 | 0.00 | 0.00 | 24 | 1013.5 |
| 20260507162402 | 81 | 205 | 0.0 | 4.0 | 0.00 | 0.00 | 0.00 | 24 | 1013.5 |
| 20260507162224 | 80 | 218 | 0.0 | 4.0 | 0.00 | 0.00 | 0.00 | 24 | 1013.5 |
| 20260507162130 | 80 | 218 | 0.0 | 4.0 | 0.00 | 0.00 | 0.00 | 24 | 1013.5 |
| 20260507162041 | 80 | 218 | 0.0 | 4.0 | 0.00 | 0.00 | 0.00 | 24 | 1013.5 |
| 20260507161941 | 80 | 218 | 0.0 | 4.0 | 0.00 | 0.00 | 0.00 | 24 | 1013.5 |
| 20260507161822 | 80 | 218 | 1.0 | 4.0 | 0.00 | 0.00 | 0.00 | 24 | 1013.5 |
| 20260507161730 | 80 | 218 | 1.0 | 4.0 | 0.00 | 0.00 | 0.00 | 25 | 1013.6 |
| 20260507161632 | 80 | 218 | 1.0 | 4.0 | 0.00 | 0.00 | 0.00 | 24 | 1013.7 |
| 20260507161602 | 80 | 218 | 0.0 | 0.0 | 0.00 | 0.00 | 0.00 | 24 | 1013.7 |
| 20260507161444 | 80 | 218 | 0.0 | 0.0 | 0.00 | 0.00 | 0.00 | 24 | 1013.7 |
| 20260507161331 | 80 | 218 | 0.0 | 0.0 | 0.00 | 0.00 | 0.00 | 24 | 1013.8 |
| 20260507161232 | 80 | 218 | 0.0 | 0.0 | 0.00 | 0.00 | 0.00 | 25 | 1013.7 |
| 20260507161203 | 80 | 218 | 0.0 | 0.0 | 0.00 | 0.00 | 0.00 | 27 | 1013.7 |
| 20260507161023 | 80 | 218 | 0.0 | 0.0 | 0.00 | 0.00 | 0.00 | 24 | 1013.7 |
| 20260507160925 | 80 | 218 | 0.0 | 0.0 | 0.00 | 0.00 | 0.00 | 24 | 1013.7 |
| 20260507160828 | 80 | 218 | 0.0 | 0.0 | 0.00 | 0.00 | 0.00 | 24 | 1013.7 |
| 20260507160741 | 80 | 218 | 0.0 | 0.0 | 0.00 | 0.00 | 0.00 | 24 | 1013.7 |
| 20260507160623 | 80 | 219 | 0.0 | 0.0 | 0.00 | 0.00 | 0.00 | 24 | 1013.7 |
| 20260507160524 | 80 | 220 | 0.0 | 0.0 | 0.00 | 0.00 | 0.00 | 24 | 1013.7 |
| 20260507160434 | 80 | 220 | 0.0 | 0.0 | 0.00 | 0.00 | 0.00 | 25 | 1013.7 |
| 20260507160354 | 80 | 220 | 0.0 | 0.0 | 0.00 | 0.00 | 0.00 | 25 | 1013.7 |
| 20260507160242 | 80 | 220 | 0.0 | 0.0 | 0.00 | 0.00 | 0.00 | 27 | 1013.7 |
| 20260507160128 | 79 | 220 | 0.0 | 0.0 | 0.00 | 0.00 | 0.00 | 26 | 1013.7 |
| 20260507160043 | 79 | 220 | 0.0 | 0.0 | 0.00 | 0.00 | 0.00 | 26 | 1013.7 |
| 20260507155927 | 79 | 220 | 0.0 | 0.0 | 0.00 | 0.00 | 0.00 | 27 | 1013.7 |
| 20260507155837 | 79 | 220 | 0.0 | 0.0 | 0.00 | 0.00 | 0.00 | 26 | 1013.7 |
| 20260507155738 | 79 | 220 | 0.0 | 0.0 | 0.00 | 0.00 | 0.00 | 26 | 1013.8 |
| 20260507155628 | 79 | 220 | 0.0 | 0.0 | 0.00 | 0.00 | 0.00 | 26 | 1013.8 |
| 20260507155547 | 79 | 220 | 0.0 | 0.0 | 0.00 | 0.00 | 0.00 | 27 | 1013.8 |
| 20260507155439 | 79 | 220 | 0.0 | 0.0 | 0.00 | 0.00 | 0.00 | 26 | 1013.8 |
| 20260507155340 | 79 | 220 | 0.0 | 0.0 | 0.00 | 0.00 | 0.00 | 26 | 1013.8 |
| 20260507155226 | 79 | 220 | 0.0 | 0.0 | 0.00 | 0.00 | 0.00 | 26 | 1013.8 |
| 20260507155128 | 78 | 220 | 0.0 | 0.0 | 0.00 | 0.00 | 0.00 | 26 | 1013.8 |
| 20260507155037 | 78 | 221 | 0.0 | 0.0 | 0.00 | 0.00 | 0.00 | 27 | 1013.8 |
| 20260507154920 | 78 | 221 | 0.0 | 0.0 | 0.00 | 0.00 | 0.00 | 29 | 1013.9 |
| 20260507154822 | 78 | 221 | 0.0 | 1.0 | 0.00 | 0.00 | 0.00 | 27 | 1014.0 |
| 20260507154735 | 78 | 221 | 0.0 | 2.0 | 0.00 | 0.00 | 0.00 | 27 | 1013.9 |
| 20260507154616 | 78 | 221 | 0.0 | 2.0 | 0.00 | 0.00 | 0.00 | 27 | 1013.9 |
| 20260507154516 | 78 | 221 | 0.0 | 2.0 | 0.00 | 0.00 | 0.00 | 27 | 1014.0 |
| 20260507154425 | 78 | 221 | 0.0 | 2.0 | 0.00 | 0.00 | 0.00 | 27 | 1013.9 |
| 20260507154327 | 78 | 221 | 0.0 | 2.0 | 0.00 | 0.00 | 0.00 | 27 | 1013.9 |
| 20260507154230 | 78 | 221 | 0.0 | 2.0 | 0.00 | 0.00 | 0.00 | 27 | 1014.0 |
| 20260507154138 | 78 | 221 | 0.0 | 2.0 | 0.00 | 0.00 | 0.00 | 27 | 1014.0 |
| 20260507154024 | 78 | 221 | 0.0 | 2.0 | 0.00 | 0.00 | 0.00 | 27 | 1014.0 |
| 20260507153927 | 78 | 222 | 0.0 | 2.0 | 0.00 | 0.00 | 0.00 | 28 | 1014.0 |
| 20260507153835 | 77 | 224 | 0.0 | 2.0 | 0.00 | 0.00 | 0.00 | 28 | 1014.0 |
| 20260507153737 | 77 | 224 | 0.0 | 2.0 | 0.00 | 0.00 | 0.00 | 28 | 1013.9 |
| 20260507153618 | 77 | 226 | 0.0 | 2.0 | 0.00 | 0.00 | 0.00 | 31 | 1013.9 |
| 20260507153527 | 77 | 227 | 0.0 | 2.0 | 0.00 | 0.00 | 0.00 | 28 | 1014.0 |
| 20260507153433 | 77 | 227 | 0.0 | 2.0 | 0.00 | 0.00 | 0.00 | 29 | 1014.0 |
| 20260507153315 | 77 | 226 | 0.0 | 2.0 | 0.00 | 0.00 | 0.00 | 29 | 1013.9 |
| 20260507153217 | 77 | 226 | 0.0 | 2.0 | 0.00 | 0.00 | 0.00 | 29 | 1014.0 |
| 20260507153146 | 77 | 226 | 0.0 | 2.0 | 0.00 | 0.00 | 0.00 | 28 | 1013.9 |
| 20260507153036 | 76 | 229 | 0.0 | 1.0 | 0.00 | 0.00 | 0.00 | 28 | 1013.9 |
| 20260507152917 | 77 | 245 | 0.0 | 1.0 | 0.00 | 0.00 | 0.00 | 28 | 1013.9 |
| 20260507152822 | 76 | 245 | 0.0 | 1.0 | 0.00 | 0.00 | 0.00 | 28 | 1013.9 |
| 20260507152751 | 77 | 248 | 0.0 | 1.0 | 0.00 | 0.00 | 0.00 | 28 | 1013.8 |
| 20260507152631 | 77 | 248 | 0.0 | 1.0 | 0.00 | 0.00 | 0.00 | 28 | 1013.9 |
| 20260507152534 | 77 | 248 | 0.0 | 1.0 | 0.00 | 0.00 | 0.00 | 30 | 1013.9 |
| 20260507152416 | 76 | 248 | 0.0 | 1.0 | 0.00 | 0.00 | 0.00 | 31 | 1013.8 |
| 20260507152325 | 76 | 248 | 0.0 | 1.0 | 0.00 | 0.00 | 0.00 | 30 | 1013.8 |
| 20260507152226 | 76 | 248 | 0.0 | 1.0 | 0.00 | 0.00 | 0.00 | 28 | 1013.8 |
| 20260507152138 | 76 | 248 | 0.0 | 1.0 | 0.00 | 0.00 | 0.00 | 28 | 1013.7 |
| 20260507152018 | 76 | 248 | 0.0 | 1.0 | 0.00 | 0.00 | 0.00 | 30 | 1013.7 |
| 20260507151946 | 76 | 248 | 0.0 | 0.0 | 0.00 | 0.00 | 0.00 | 31 | 1013.8 |
| 20260507151833 | 75 | 248 | 0.0 | 0.0 | 0.00 | 0.00 | 0.00 | 29 | 1013.7 |
| 20260507151735 | 75 | 248 | 0.0 | 1.0 | 0.00 | 0.00 | 0.00 | 29 | 1013.7 |
| 20260507151617 | 75 | 248 | 0.0 | 1.0 | 0.00 | 0.00 | 0.00 | 30 | 1013.7 |
| 20260507151524 | 75 | 248 | 0.0 | 1.0 | 0.00 | 0.00 | 0.00 | 30 | 1013.7 |
| 20260507151424 | 75 | 248 | 0.0 | 1.0 | 0.00 | 0.00 | 0.00 | 30 | 1013.6 |
| 20260507151330 | 75 | 248 | 0.0 | 1.0 | 0.00 | 0.00 | 0.00 | 30 | 1013.7 |
| 20260507151238 | 75 | 248 | 0.0 | 1.0 | 0.00 | 0.00 | 0.00 | 32 | 1013.7 |
| 20260507151139 | 75 | 248 | 0.0 | 2.0 | 0.00 | 0.00 | 0.00 | 33 | 1013.7 |
| 20260507151027 | 75 | 248 | 0.0 | 2.0 | 0.00 | 0.00 | 0.00 | 32 | 1013.6 |
| 20260507150928 | 74 | 248 | 0.0 | 2.0 | 0.00 | 0.00 | 0.00 | 31 | 1013.6 |
| 20260507150838 | 74 | 248 | 0.0 | 2.0 | 0.00 | 0.00 | 0.00 | 30 | 1013.6 |
| 20260507150739 | 74 | 248 | 0.0 | 2.0 | 0.00 | 0.00 | 0.00 | 33 | 1013.7 |
| 20260507150631 | 74 | 248 | 0.0 | 2.0 | 0.00 | 0.00 | 0.00 | 31 | 1013.7 |
| 20260507150533 | 74 | 248 | 0.0 | 2.0 | 0.00 | 0.00 | 0.00 | 32 | 1013.7 |
| 20260507150436 | 74 | 248 | 0.0 | 2.0 | 0.00 | 0.00 | 0.00 | 33 | 1013.7 |
| 20260507150317 | 74 | 248 | 0.0 | 2.0 | 0.00 | 0.00 | 0.00 | 31 | 1013.7 |
| 20260507150226 | 74 | 248 | 0.0 | 0.0 | 0.00 | 0.00 | 0.00 | 31 | 1013.8 |
| 20260507150147 | 74 | 248 | 0.0 | 0.0 | 0.00 | 0.00 | 0.00 | 32 | 1013.7 |
| 20260507150032 | 74 | 248 | 0.0 | 0.0 | 0.00 | 0.00 | 0.00 | 33 | 1013.7 |
| 20260507145918 | 74 | 248 | 0.0 | 0.0 | 0.00 | 0.00 | 0.00 | 34 | 1013.8 |
| 20260507145846 | 73 | 248 | 0.0 | 0.0 | 0.00 | 0.00 | 0.00 | 34 | 1013.8 |
| 20260507145728 | 73 | 248 | 0.0 | 0.0 | 0.00 | 0.00 | 0.00 | 36 | 1013.9 |
| 20260507145629 | 73 | 248 | 0.0 | 0.0 | 0.00 | 0.00 | 0.00 | 35 | 1013.8 |
| 20260507145540 | 73 | 248 | 0.0 | 0.0 | 0.00 | 0.00 | 0.00 | 35 | 1013.8 |
| 20260507145421 | 73 | 248 | 0.0 | 1.0 | 0.00 | 0.00 | 0.00 | 33 | 1013.7 |
| 20260507145327 | 73 | 248 | 0.0 | 1.0 | 0.00 | 0.00 | 0.00 | 33 | 1013.7 |
| 20260507145228 | 73 | 248 | 0.0 | 1.0 | 0.00 | 0.00 | 0.00 | 32 | 1013.8 |
| 20260507145137 | 72 | 248 | 0.0 | 1.0 | 0.00 | 0.00 | 0.00 | 33 | 1013.8 |
| 20260507145018 | 72 | 248 | 0.0 | 1.0 | 0.00 | 0.00 | 0.00 | 33 | 1013.7 |
| 20260507144926 | 72 | 248 | 0.0 | 1.0 | 0.00 | 0.00 | 0.00 | 33 | 1013.8 |
| 20260507144827 | 72 | 248 | 0.0 | 1.0 | 0.00 | 0.00 | 0.00 | 33 | 1013.8 |
| 20260507144757 | 72 | 248 | 0.0 | 1.0 | 0.00 | 0.00 | 0.00 | 35 | 1013.8 |
| 20260507144621 | 72 | 248 | 0.0 | 0.0 | 0.00 | 0.00 | 0.00 | 36 | 1013.7 |
| 20260507144530 | 72 | 248 | 0.0 | 0.0 | 0.00 | 0.00 | 0.00 | 35 | 1013.7 |
| 20260507144431 | 72 | 248 | 0.0 | 0.0 | 0.00 | 0.00 | 0.00 | 34 | 1013.7 |
| 20260507144339 | 72 | 248 | 0.0 | 0.0 | 0.00 | 0.00 | 0.00 | 35 | 1013.7 |
| 20260507144221 | 71 | 248 | 0.0 | 0.0 | 0.00 | 0.00 | 0.00 | 35 | 1013.7 |
| 20260507144123 | 71 | 248 | 0.0 | 0.0 | 0.00 | 0.00 | 0.00 | 34 | 1013.7 |
| 20260507144025 | 71 | 248 | 0.0 | 0.0 | 0.00 | 0.00 | 0.00 | 34 | 1013.7 |
| 20260507143938 | 71 | 248 | 0.0 | 0.0 | 0.00 | 0.00 | 0.00 | 34 | 1013.7 |
| 20260507143820 | 71 | 248 | 0.0 | 0.0 | 0.00 | 0.00 | 0.00 | 35 | 1013.7 |
| 20260507143722 | 71 | 248 | 0.0 | 0.0 | 0.00 | 0.00 | 0.00 | 35 | 1013.7 |
| 20260507143624 | 71 | 248 | 0.0 | 2.0 | 0.00 | 0.00 | 0.00 | 35 | 1013.7 |
| 20260507143533 | 71 | 248 | 0.0 | 2.0 | 0.00 | 0.00 | 0.00 | 35 | 1013.7 |
| 20260507143419 | 71 | 248 | 0.0 | 2.0 | 0.00 | 0.00 | 0.00 | 34 | 1013.6 |
| 20260507143321 | 71 | 248 | 0.0 | 2.0 | 0.00 | 0.00 | 0.00 | 35 | 1013.8 |
| 20260507143228 | 71 | 248 | 0.0 | 2.0 | 0.00 | 0.00 | 0.00 | 35 | 1013.7 |
| 20260507143129 | 70 | 248 | 0.0 | 2.0 | 0.00 | 0.00 | 0.00 | 34 | 1013.7 |
| 20260507143030 | 70 | 248 | 0.0 | 2.0 | 0.00 | 0.00 | 0.00 | 34 | 1013.8 |
| 20260507142917 | 70 | 248 | 0.0 | 2.0 | 0.00 | 0.00 | 0.00 | 36 | 1013.9 |
| 20260507142819 | 70 | 248 | 0.0 | 2.0 | 0.00 | 0.00 | 0.00 | 37 | 1013.8 |
| 20260507142731 | 70 | 248 | 0.0 | 1.0 | 0.00 | 0.00 | 0.00 | 36 | 1013.9 |
| 20260507142634 | 70 | 248 | 0.0 | 0.0 | 0.00 | 0.00 | 0.00 | 35 | 1013.9 |
| 20260507142536 | 70 | 248 | 0.0 | 0.0 | 0.00 | 0.00 | 0.00 | 36 | 1013.7 |
| 20260507142416 | 69 | 248 | 0.0 | 0.0 | 0.00 | 0.00 | 0.00 | 36 | 1013.8 |
| 20260507142326 | 69 | 248 | 0.0 | 0.0 | 0.00 | 0.00 | 0.00 | 35 | 1013.9 |
| 20260507142225 | 69 | 248 | 0.0 | 0.0 | 0.00 | 0.00 | 0.00 | 35 | 1013.8 |
| 20260507142134 | 69 | 248 | 0.0 | 0.0 | 0.00 | 0.00 | 0.00 | 35 | 1013.8 |
| 20260507142021 | 69 | 248 | 0.0 | 0.0 | 0.00 | 0.00 | 0.00 | 34 | 1013.9 |
| 20260507141944 | 69 | 248 | 0.0 | 0.0 | 0.00 | 0.00 | 0.00 | 34 | 1013.9 |
| 20260507141831 | 69 | 248 | 0.0 | 0.0 | 0.00 | 0.00 | 0.00 | 35 | 1013.8 |
| 20260507141733 | 69 | 248 | 0.0 | 0.0 | 0.00 | 0.00 | 0.00 | 35 | 1013.8 |
| 20260507141622 | 69 | 248 | 0.0 | 0.0 | 0.00 | 0.00 | 0.00 | 35 | 1013.9 |
| 20260507141542 | 69 | 248 | 0.0 | 0.0 | 0.00 | 0.00 | 0.00 | 35 | 1013.8 |
| 20260507141430 | 69 | 248 | 0.0 | 0.0 | 0.00 | 0.00 | 0.00 | 36 | 1013.8 |
| 20260507141337 | 68 | 248 | 0.0 | 0.0 | 0.00 | 0.00 | 0.00 | 37 | 1013.8 |
| 20260507141218 | 68 | 248 | 0.0 | 0.0 | 0.00 | 0.00 | 0.00 | 36 | 1013.8 |
| 20260507141119 | 68 | 248 | 0.0 | 0.0 | 0.00 | 0.00 | 0.00 | 37 | 1013.8 |
| 20260507141028 | 68 | 248 | 0.0 | 0.0 | 0.00 | 0.00 | 0.00 | 37 | 1013.8 |
| 20260507140929 | 68 | 248 | 0.0 | 0.0 | 0.00 | 0.00 | 0.00 | 37 | 1013.8 |
| 20260507140831 | 68 | 248 | 0.0 | 0.0 | 0.00 | 0.00 | 0.00 | 37 | 1013.7 |
| 20260507140716 | 67 | 248 | 0.0 | 0.0 | 0.00 | 0.00 | 0.00 | 39 | 1013.8 |
| 20260507140625 | 67 | 248 | 0.0 | 0.0 | 0.00 | 0.00 | 0.00 | 40 | 1013.8 |
| 20260507140526 | 67 | 248 | 0.0 | 0.0 | 0.00 | 0.00 | 0.00 | 39 | 1013.7 |
| 20260507140434 | 67 | 248 | 0.0 | 0.0 | 0.00 | 0.00 | 0.00 | 39 | 1013.8 |
| 20260507140336 | 67 | 248 | 0.0 | 0.0 | 0.00 | 0.00 | 0.00 | 39 | 1013.7 |
| 20260507140217 | 67 | 248 | 0.0 | 0.0 | 0.00 | 0.00 | 0.00 | 41 | 1013.8 |
| 20260507140129 | 66 | 248 | 0.0 | 0.0 | 0.00 | 0.00 | 0.00 | 40 | 1013.7 |
| 20260507140044 | 66 | 248 | 0.0 | 0.0 | 0.00 | 0.00 | 0.00 | 40 | 1013.7 |
| 20260507135941 | 66 | 248 | 0.0 | 0.0 | 0.00 | 0.00 | 0.00 | 41 | 1013.7 |
| 20260507135823 | 66 | 248 | 0.0 | 0.0 | 0.00 | 0.00 | 0.00 | 41 | 1013.7 |
| 20260507135726 | 66 | 248 | 0.0 | 0.0 | 0.00 | 0.00 | 0.00 | 41 | 1013.7 |
| 20260507135628 | 66 | 248 | 0.0 | 0.0 | 0.00 | 0.00 | 0.00 | 41 | 1013.7 |
| 20260507135542 | 66 | 248 | 0.0 | 0.0 | 0.00 | 0.00 | 0.00 | 41 | 1013.7 |
| 20260507135423 | 65 | 248 | 0.0 | 0.0 | 0.00 | 0.00 | 0.00 | 41 | 1013.7 |
| 20260507135354 | 65 | 248 | 0.0 | 0.0 | 0.00 | 0.00 | 0.00 | 41 | 1013.7 |
| 20260507135215 | 65 | 248 | 0.0 | 1.0 | 0.00 | 0.00 | 0.00 | 44 | 1013.6 |
| 20260507135116 | 65 | 248 | 0.0 | 1.0 | 0.00 | 0.00 | 0.00 | 44 | 1013.6 |
| 20260507135044 | 65 | 248 | 0.0 | 1.0 | 0.00 | 0.00 | 0.00 | 41 | 1013.7 |
| 20260507134925 | 65 | 248 | 0.0 | 1.0 | 0.00 | 0.00 | 0.00 | 41 | 1013.7 |
| 20260507134830 | 65 | 248 | 0.0 | 1.0 | 0.00 | 0.00 | 0.00 | 40 | 1013.7 |
| 20260507134740 | 65 | 248 | 0.0 | 1.0 | 0.00 | 0.00 | 0.00 | 41 | 1013.7 |
| 20260507134622 | 65 | 248 | 0.0 | 1.0 | 0.00 | 0.00 | 0.00 | 41 | 1013.6 |
| 20260507134523 | 65 | 248 | 0.0 | 1.0 | 0.00 | 0.00 | 0.00 | 41 | 1013.6 |
| 20260507134424 | 65 | 248 | 0.0 | 1.0 | 0.00 | 0.00 | 0.00 | 41 | 1013.6 |
| 20260507134334 | 65 | 248 | 0.0 | 0.0 | 0.00 | 0.00 | 0.00 | 41 | 1013.6 |
| 20260507134220 | 65 | 248 | 0.0 | 0.0 | 0.00 | 0.00 | 0.00 | 41 | 1013.6 |
| 20260507134122 | 65 | 248 | 0.0 | 0.0 | 0.00 | 0.00 | 0.00 | 41 | 1013.6 |
| 20260507134023 | 65 | 248 | 0.0 | 0.0 | 0.00 | 0.00 | 0.00 | 40 | 1013.6 |
| 20260507133931 | 65 | 250 | 0.0 | 0.0 | 0.00 | 0.00 | 0.00 | 40 | 1013.6 |
| 20260507133834 | 64 | 250 | 0.0 | 0.0 | 0.00 | 0.00 | 0.00 | 41 | 1013.5 |
| 20260507133718 | 64 | 236 | 0.0 | 0.0 | 0.00 | 0.00 | 0.00 | 41 | 1013.6 |
| 20260507133619 | 64 | 236 | 0.0 | 0.0 | 0.00 | 0.00 | 0.00 | 42 | 1013.5 |
| 20260507133529 | 64 | 236 | 0.0 | 0.0 | 0.00 | 0.00 | 0.00 | 41 | 1013.5 |
| 20260507133430 | 64 | 236 | 0.0 | 0.0 | 0.00 | 0.00 | 0.00 | 41 | 1013.5 |
| 20260507133341 | 64 | 236 | 0.0 | 0.0 | 0.00 | 0.00 | 0.00 | 40 | 1013.5 |
| 20260507133242 | 64 | 236 | 0.0 | 0.0 | 0.00 | 0.00 | 0.00 | 41 | 1013.5 |
| 20260507133124 | 64 | 236 | 0.0 | 0.0 | 0.00 | 0.00 | 0.00 | 41 | 1013.5 |
| 20260507133057 | 64 | 236 | 0.0 | 0.0 | 0.00 | 0.00 | 0.00 | 41 | 1013.5 |
| 20260507132917 | 63 | 236 | 0.0 | 0.0 | 0.00 | 0.00 | 0.00 | 41 | 1013.4 |
| 20260507132818 | 63 | 236 | 0.0 | 0.0 | 0.00 | 0.00 | 0.00 | 42 | 1013.5 |
| 20260507132728 | 63 | 236 | 0.0 | 0.0 | 0.00 | 0.00 | 0.00 | 43 | 1013.5 |
| 20260507132630 | 63 | 236 | 0.0 | 0.0 | 0.00 | 0.00 | 0.00 | 43 | 1013.5 |
| 20260507132531 | 63 | 236 | 0.0 | 0.0 | 0.00 | 0.00 | 0.00 | 43 | 1013.4 |
| 20260507132417 | 63 | 236 | 0.0 | 0.0 | 0.00 | 0.00 | 0.00 | 43 | 1013.4 |
| 20260507132326 | 63 | 236 | 0.0 | 0.0 | 0.00 | 0.00 | 0.00 | 43 | 1013.4 |
| 20260507132224 | 62 | 236 | 0.0 | 0.0 | 0.00 | 0.00 | 0.00 | 43 | 1013.3 |
| 20260507132152 | 62 | 236 | 0.0 | 0.0 | 0.00 | 0.00 | 0.00 | 43 | 1013.3 |
| 20260507132039 | 62 | 236 | 0.0 | 0.0 | 0.00 | 0.00 | 0.00 | 43 | 1013.3 |
| 20260507131919 | 62 | 236 | 0.0 | 0.0 | 0.00 | 0.00 | 0.00 | 44 | 1013.3 |
| 20260507131821 | 62 | 236 | 0.0 | 0.0 | 0.00 | 0.00 | 0.00 | 44 | 1013.3 |
| 20260507131734 | 62 | 236 | 0.0 | 0.0 | 0.00 | 0.00 | 0.00 | 44 | 1013.4 |
| 20260507131635 | 62 | 236 | 0.0 | 0.0 | 0.00 | 0.00 | 0.00 | 44 | 1013.4 |
| 20260507131516 | 62 | 236 | 0.0 | 0.0 | 0.00 | 0.00 | 0.00 | 44 | 1013.4 |
| 20260507131417 | 61 | 236 | 0.0 | 0.0 | 0.00 | 0.00 | 0.00 | 44 | 1013.4 |
| 20260507131326 | 61 | 236 | 0.0 | 0.0 | 0.00 | 0.00 | 0.00 | 44 | 1013.4 |
| 20260507131228 | 61 | 236 | 0.0 | 0.0 | 0.00 | 0.00 | 0.00 | 44 | 1013.2 |
| 20260507131137 | 61 | 236 | 0.0 | 0.0 | 0.00 | 0.00 | 0.00 | 44 | 1013.4 |
| 20260507131022 | 61 | 236 | 0.0 | 0.0 | 0.00 | 0.00 | 0.00 | 45 | 1013.2 |
| 20260507130925 | 61 | 236 | 0.0 | 0.0 | 0.00 | 0.00 | 0.00 | 47 | 1013.2 |
| 20260507130828 | 61 | 236 | 0.0 | 0.0 | 0.00 | 0.00 | 0.00 | 47 | 1013.3 |
| 20260507130738 | 61 | 236 | 0.0 | 0.0 | 0.00 | 0.00 | 0.00 | 44 | 1013.3 |
| 20260507130619 | 61 | 236 | 0.0 | 0.0 | 0.00 | 0.00 | 0.00 | 45 | 1013.3 |
| 20260507130541 | 61 | 236 | 0.0 | 0.0 | 0.00 | 0.00 | 0.00 | 44 | 1013.3 |
| 20260507130432 | 61 | 236 | 0.0 | 0.0 | 0.00 | 0.00 | 0.00 | 43 | 1013.2 |
| 20260507130334 | 61 | 236 | 0.0 | 0.0 | 0.00 | 0.00 | 0.00 | 44 | 1013.2 |
| 20260507130216 | 61 | 236 | 0.0 | 0.0 | 0.00 | 0.00 | 0.00 | 44 | 1013.2 |
| 20260507130145 | 61 | 236 | 0.0 | 0.0 | 0.00 | 0.00 | 0.00 | 43 | 1013.2 |
| 20260507130039 | 61 | 236 | 0.0 | 0.0 | 0.00 | 0.00 | 0.00 | 43 | 1013.2 |
| 20260507125935 | 61 | 236 | 0.0 | 0.0 | 0.00 | 0.00 | 0.00 | 43 | 1013.2 |
| 20260507125820 | 61 | 236 | 0.0 | 0.0 | 0.00 | 0.00 | 0.00 | 43 | 1013.2 |
| 20260507125722 | 61 | 236 | 0.0 | 0.0 | 0.00 | 0.00 | 0.00 | 43 | 1013.2 |
| 20260507125624 | 61 | 236 | 0.0 | 0.0 | 0.00 | 0.00 | 0.00 | 43 | 1013.2 |
| 20260507125534 | 61 | 236 | 0.0 | 0.0 | 0.00 | 0.00 | 0.00 | 43 | 1013.2 |
| 20260507125435 | 61 | 236 | 0.0 | 0.0 | 0.00 | 0.00 | 0.00 | 43 | 1013.2 |
| 20260507125336 | 61 | 236 | 0.0 | 0.0 | 0.00 | 0.00 | 0.00 | 43 | 1013.2 |
| 20260507125229 | 61 | 236 | 0.0 | 0.0 | 0.00 | 0.00 | 0.00 | 43 | 1013.1 |
| 20260507125150 | 61 | 236 | 0.0 | 0.0 | 0.00 | 0.00 | 0.00 | 43 | 1013.1 |
| 20260507125038 | 61 | 236 | 0.0 | 0.0 | 0.00 | 0.00 | 0.00 | 43 | 1013.1 |
| 20260507124919 | 61 | 236 | 0.0 | 0.0 | 0.00 | 0.00 | 0.00 | 43 | 1013.1 |
| 20260507124820 | 61 | 236 | 0.0 | 0.0 | 0.00 | 0.00 | 0.00 | 43 | 1013.1 |
| 20260507124728 | 61 | 236 | 0.0 | 0.0 | 0.00 | 0.00 | 0.00 | 43 | 1013.1 |
| 20260507124630 | 61 | 236 | 0.0 | 0.0 | 0.00 | 0.00 | 0.00 | 42 | 1013.1 |
| 20260507124516 | 61 | 236 | 0.0 | 0.0 | 0.00 | 0.00 | 0.00 | 43 | 1013.2 |
| 20260507124418 | 61 | 236 | 0.0 | 0.0 | 0.00 | 0.00 | 0.00 | 43 | 1013.2 |
| 20260507124347 | 62 | 236 | 0.0 | 0.0 | 0.00 | 0.00 | 0.00 | 42 | 1013.2 |
| 20260507124227 | 62 | 236 | 0.0 | 0.0 | 0.00 | 0.00 | 0.00 | 42 | 1013.2 |
| 20260507124136 | 62 | 236 | 0.0 | 0.0 | 0.00 | 0.00 | 0.00 | 42 | 1013.1 |
| 20260507124018 | 62 | 236 | 0.0 | 0.0 | 0.00 | 0.00 | 0.00 | 42 | 1013.2 |
| 20260507123930 | 62 | 236 | 0.0 | 0.0 | 0.00 | 0.00 | 0.00 | 42 | 1013.2 |
| 20260507123830 | 62 | 236 | 0.0 | 0.0 | 0.00 | 0.00 | 0.00 | 42 | 1013.3 |
| 20260507123737 | 62 | 236 | 0.0 | 0.0 | 0.00 | 0.00 | 0.00 | 42 | 1013.3 |
| 20260507123618 | 62 | 236 | 0.0 | 0.0 | 0.00 | 0.00 | 0.00 | 41 | 1013.2 |
| 20260507123540 | 62 | 236 | 0.0 | 0.0 | 0.00 | 0.00 | 0.00 | 41 | 1013.2 |
| 20260507123429 | 62 | 236 | 0.0 | 0.0 | 0.00 | 0.00 | 0.00 | 41 | 1013.2 |
| 20260507123331 | 62 | 236 | 0.0 | 0.0 | 0.00 | 0.00 | 0.00 | 41 | 1013.2 |
| 20260507123237 | 62 | 236 | 0.0 | 0.0 | 0.00 | 0.00 | 0.00 | 41 | 1013.2 |
| 20260507123125 | 62 | 236 | 0.0 | 0.0 | 0.00 | 0.00 | 0.00 | 41 | 1013.1 |
| 20260507123028 | 62 | 236 | 0.0 | 0.0 | 0.00 | 0.00 | 0.00 | 41 | 1013.2 |
| 20260507122929 | 62 | 236 | 0.0 | 0.0 | 0.00 | 0.00 | 0.00 | 41 | 1013.2 |
| 20260507122839 | 62 | 236 | 0.0 | 0.0 | 0.00 | 0.00 | 0.00 | 41 | 1013.2 |
| 20260507122721 | 62 | 236 | 0.0 | 0.0 | 0.00 | 0.00 | 0.00 | 41 | 1013.1 |
| 20260507122627 | 62 | 236 | 0.0 | 0.0 | 0.00 | 0.00 | 0.00 | 41 | 1013.1 |
| 20260507122528 | 62 | 236 | 0.0 | 0.0 | 0.00 | 0.00 | 0.00 | 41 | 1013.1 |
| 20260507122438 | 62 | 236 | 0.0 | 0.0 | 0.00 | 0.00 | 0.00 | 41 | 1013.1 |
| 20260507122320 | 62 | 236 | 0.0 | 0.0 | 0.00 | 0.00 | 0.00 | 41 | 1013.1 |
| 20260507122250 | 62 | 236 | 0.0 | 0.0 | 0.00 | 0.00 | 0.00 | 41 | 1013.1 |
| 20260507122131 | 62 | 236 | 0.0 | 0.0 | 0.00 | 0.00 | 0.00 | 41 | 1013.1 |
| 20260507122016 | 62 | 236 | 0.0 | 0.0 | 0.00 | 0.00 | 0.00 | 41 | 1013.1 |
| 20260507121924 | 62 | 236 | 0.0 | 0.0 | 0.00 | 0.00 | 0.00 | 41 | 1013.1 |
| 20260507121827 | 62 | 236 | 0.0 | 0.0 | 0.00 | 0.00 | 0.00 | 40 | 1013.1 |
| 20260507121729 | 63 | 236 | 0.0 | 0.0 | 0.00 | 0.00 | 0.00 | 41 | 1013.1 |
| 20260507121639 | 63 | 236 | 0.0 | 0.0 | 0.00 | 0.00 | 0.00 | 41 | 1013.1 |
| 20260507121520 | 63 | 236 | 0.0 | 0.0 | 0.00 | 0.00 | 0.00 | 40 | 1013.1 |
| 20260507121422 | 63 | 236 | 0.0 | 0.0 | 0.00 | 0.00 | 0.00 | 40 | 1013.1 |
| 20260507121357 | 63 | 236 | 0.0 | 0.0 | 0.00 | 0.00 | 0.00 | 41 | 1013.0 |
| 20260507121216 | 63 | 236 | 0.0 | 0.0 | 0.00 | 0.00 | 0.00 | 40 | 1013.0 |
| 20260507121119 | 63 | 236 | 0.0 | 0.0 | 0.00 | 0.00 | 0.00 | 40 | 1013.1 |
| 20260507121021 | 63 | 236 | 0.0 | 0.0 | 0.00 | 0.00 | 0.00 | 40 | 1013.1 |
| 20260507120931 | 63 | 236 | 0.0 | 0.0 | 0.00 | 0.00 | 0.00 | 40 | 1013.2 |
| 20260507120833 | 63 | 236 | 0.0 | 0.0 | 0.00 | 0.00 | 0.00 | 40 | 1013.1 |
| 20260507120718 | 63 | 236 | 0.0 | 0.0 | 0.00 | 0.00 | 0.00 | 40 | 1013.0 |
| 20260507120619 | 63 | 236 | 0.0 | 0.0 | 0.00 | 0.00 | 0.00 | 40 | 1013.1 |
| 20260507120549 | 63 | 236 | 0.0 | 0.0 | 0.00 | 0.00 | 0.00 | 40 | 1013.0 |
| 20260507120429 | 63 | 236 | 0.0 | 0.0 | 0.00 | 0.00 | 0.00 | 40 | 1013.0 |
| 20260507120319 | 63 | 236 | 0.0 | 0.0 | 0.00 | 0.00 | 0.00 | 40 | 1013.0 |
| 20260507120220 | 63 | 236 | 0.0 | 0.0 | 0.00 | 0.00 | 0.00 | 40 | 1013.0 |
| 20260507120126 | 63 | 236 | 0.0 | 0.0 | 0.00 | 0.00 | 0.00 | 40 | 1013.0 |
| 20260507120047 | 63 | 236 | 0.0 | 0.0 | 0.00 | 0.00 | 0.00 | 39 | 1013.0 |
| 20260507115918 | 63 | 236 | 0.0 | 0.0 | 0.00 | 0.00 | 0.00 | 40 | 1013.0 |
| 20260507115846 | 63 | 236 | 0.0 | 0.0 | 0.00 | 0.00 | 0.00 | 40 | 1013.0 |
| 20260507115725 | 63 | 236 | 0.0 | 0.0 | 0.00 | 0.00 | 0.00 | 39 | 1013.0 |
| 20260507115655 | 64 | 236 | 0.0 | 0.0 | 0.00 | 0.00 | 0.00 | 39 | 1012.9 |
| 20260507115557 | 64 | 236 | 0.0 | 0.0 | 0.00 | 0.00 | 0.00 | 39 | 1013.0 |
| 20260507115421 | 64 | 236 | 0.0 | 0.0 | 0.00 | 0.00 | 0.00 | 39 | 1013.0 |
| 20260507115331 | 64 | 236 | 0.0 | 0.0 | 0.00 | 0.00 | 0.00 | 39 | 1012.9 |
| 20260507115233 | 64 | 236 | 0.0 | 0.0 | 0.00 | 0.00 | 0.00 | 39 | 1012.9 |
| 20260507115135 | 64 | 236 | 0.0 | 0.0 | 0.00 | 0.00 | 0.00 | 39 | 1012.9 |
| 20260507115017 | 64 | 236 | 0.0 | 0.0 | 0.00 | 0.00 | 0.00 | 39 | 1012.9 |
| 20260507114926 | 64 | 236 | 0.0 | 0.0 | 0.00 | 0.00 | 0.00 | 38 | 1013.0 |
| 20260507114832 | 64 | 236 | 0.0 | 0.0 | 0.00 | 0.00 | 0.00 | 39 | 1012.9 |
| 20260507114732 | 64 | 236 | 0.0 | 0.0 | 0.00 | 0.00 | 0.00 | 39 | 1013.0 |
| 20260507114643 | 64 | 236 | 0.0 | 0.0 | 0.00 | 0.00 | 0.00 | 39 | 1013.0 |
| 20260507114524 | 64 | 236 | 0.0 | 0.0 | 0.00 | 0.00 | 0.00 | 39 | 1013.0 |
| 20260507114423 | 64 | 236 | 0.0 | 0.0 | 0.00 | 0.00 | 0.00 | 39 | 1013.1 |
| 20260507114331 | 64 | 236 | 0.0 | 0.0 | 0.00 | 0.00 | 0.00 | 39 | 1012.9 |
| 20260507114233 | 64 | 236 | 0.0 | 0.0 | 0.00 | 0.00 | 0.00 | 39 | 1013.0 |
| 20260507114125 | 64 | 236 | 0.0 | 0.0 | 0.00 | 0.00 | 0.00 | 38 | 1012.9 |
| 20260507114027 | 64 | 236 | 0.0 | 0.0 | 0.00 | 0.00 | 0.00 | 39 | 1013.1 |
| 20260507113929 | 64 | 236 | 0.0 | 0.0 | 0.00 | 0.00 | 0.00 | 38 | 1013.0 |
| 20260507113839 | 64 | 236 | 0.0 | 0.0 | 0.00 | 0.00 | 0.00 | 39 | 1013.0 |
| 20260507113721 | 64 | 236 | 0.0 | 0.0 | 0.00 | 0.00 | 0.00 | 39 | 1013.0 |
| 20260507113623 | 64 | 236 | 0.0 | 0.0 | 0.00 | 0.00 | 0.00 | 39 | 1013.0 |
| 20260507113529 | 64 | 236 | 0.0 | 0.0 | 0.00 | 0.00 | 0.00 | 38 | 1013.0 |
| 20260507113439 | 64 | 236 | 0.0 | 0.0 | 0.00 | 0.00 | 0.00 | 38 | 1013.0 |
| 20260507113321 | 64 | 236 | 0.0 | 0.0 | 0.00 | 0.00 | 0.00 | 38 | 1013.1 |
| 20260507113223 | 64 | 236 | 0.0 | 0.0 | 0.00 | 0.00 | 0.00 | 38 | 1013.0 |
| 20260507113152 | 64 | 236 | 0.0 | 0.0 | 0.00 | 0.00 | 0.00 | 38 | 1013.1 |
| 20260507113033 | 64 | 236 | 0.0 | 0.0 | 0.00 | 0.00 | 0.00 | 38 | 1013.1 |
| 20260507112918 | 64 | 236 | 0.0 | 0.0 | 0.00 | 0.00 | 0.00 | 38 | 1013.2 |
| 20260507112820 | 65 | 236 | 0.0 | 0.0 | 0.00 | 0.00 | 0.00 | 37 | 1013.2 |
| 20260507112730 | 65 | 236 | 0.0 | 0.0 | 0.00 | 0.00 | 0.00 | 37 | 1013.1 |
| 20260507112632 | 65 | 236 | 0.0 | 0.0 | 0.00 | 0.00 | 0.00 | 37 | 1013.2 |
| 20260507112533 | 65 | 236 | 0.0 | 0.0 | 0.00 | 0.00 | 0.00 | 37 | 1013.2 |
| 20260507112442 | 65 | 236 | 0.0 | 0.0 | 0.00 | 0.00 | 0.00 | 37 | 1013.2 |
| 20260507112328 | 65 | 236 | 0.0 | 0.0 | 0.00 | 0.00 | 0.00 | 37 | 1013.1 |
| 20260507112228 | 65 | 236 | 0.0 | 0.0 | 0.00 | 0.00 | 0.00 | 37 | 1013.1 |
| 20260507112141 | 65 | 236 | 0.0 | 0.0 | 0.00 | 0.00 | 0.00 | 37 | 1013.1 |
| 20260507112040 | 65 | 236 | 0.0 | 0.0 | 0.00 | 0.00 | 0.00 | 37 | 1013.1 |
| 20260507111921 | 65 | 236 | 0.0 | 0.0 | 0.00 | 0.00 | 0.00 | 37 | 1013.2 |
| 20260507111830 | 65 | 236 | 0.0 | 0.0 | 0.00 | 0.00 | 0.00 | 37 | 1013.2 |
| 20260507111735 | 65 | 236 | 0.0 | 0.0 | 0.00 | 0.00 | 0.00 | 36 | 1013.1 |
| 20260507111617 | 65 | 236 | 0.0 | 0.0 | 0.00 | 0.00 | 0.00 | 36 | 1013.1 |
| 20260507111519 | 65 | 236 | 0.0 | 0.0 | 0.00 | 0.00 | 0.00 | 36 | 1013.1 |
| 20260507111428 | 65 | 236 | 0.0 | 0.0 | 0.00 | 0.00 | 0.00 | 36 | 1013.1 |
| 20260507111330 | 65 | 236 | 0.0 | 0.0 | 0.00 | 0.00 | 0.00 | 35 | 1013.1 |
| 20260507111233 | 65 | 236 | 0.0 | 0.0 | 0.00 | 0.00 | 0.00 | 35 | 1013.1 |
| 20260507111146 | 65 | 236 | 0.0 | 0.0 | 0.00 | 0.00 | 0.00 | 35 | 1013.1 |
| 20260507111025 | 65 | 236 | 0.0 | 0.0 | 0.00 | 0.00 | 0.00 | 35 | 1013.1 |
| 20260507110934 | 65 | 236 | 0.0 | 0.0 | 0.00 | 0.00 | 0.00 | 35 | 1013.1 |
| 20260507110816 | 65 | 236 | 0.0 | 0.0 | 0.00 | 0.00 | 0.00 | 34 | 1013.2 |
| 20260507110717 | 65 | 236 | 0.0 | 0.0 | 0.00 | 0.00 | 0.00 | 35 | 1013.2 |
| 20260507110619 | 65 | 236 | 0.0 | 0.0 | 0.00 | 0.00 | 0.00 | 35 | 1013.2 |
| 20260507110528 | 65 | 236 | 0.0 | 0.0 | 0.00 | 0.00 | 0.00 | 35 | 1013.2 |
| 20260507110452 | 66 | 236 | 0.0 | 0.0 | 0.00 | 0.00 | 0.00 | 34 | 1013.2 |
| 20260507110341 | 66 | 236 | 0.0 | 1.0 | 0.00 | 0.00 | 0.00 | 34 | 1013.2 |
| 20260507110223 | 66 | 236 | 0.0 | 1.0 | 0.00 | 0.00 | 0.00 | 34 | 1013.3 |
| 20260507110143 | 66 | 236 | 0.0 | 1.0 | 0.00 | 0.00 | 0.00 | 35 | 1013.2 |
| 20260507110044 | 66 | 236 | 0.0 | 1.0 | 0.00 | 0.00 | 0.00 | 34 | 1013.2 |
| 20260507105935 | 65 | 236 | 0.0 | 1.0 | 0.00 | 0.00 | 0.00 | 35 | 1013.2 |
| 20260507105821 | 65 | 236 | 0.0 | 1.0 | 0.00 | 0.00 | 0.00 | 35 | 1013.2 |
| 20260507105751 | 65 | 236 | 0.0 | 1.0 | 0.00 | 0.00 | 0.00 | 36 | 1013.3 |
| 20260507105630 | 65 | 236 | 0.0 | 1.0 | 0.00 | 0.00 | 0.00 | 35 | 1013.3 |
| 20260507105517 | 65 | 236 | 0.0 | 1.0 | 0.00 | 0.00 | 0.00 | 35 | 1013.3 |
| 20260507105446 | 65 | 236 | 0.0 | 1.0 | 0.00 | 0.00 | 0.00 | 35 | 1013.3 |
| 20260507105327 | 65 | 236 | 0.0 | 1.0 | 0.00 | 0.00 | 0.00 | 35 | 1013.3 |
| 20260507105228 | 65 | 236 | 0.0 | 1.0 | 0.00 | 0.00 | 0.00 | 36 | 1013.3 |
| 20260507105138 | 65 | 236 | 0.0 | 0.0 | 0.00 | 0.00 | 0.00 | 36 | 1013.3 |
| 20260507105024 | 65 | 236 | 0.0 | 0.0 | 0.00 | 0.00 | 0.00 | 35 | 1013.3 |
| 20260507104926 | 65 | 236 | 0.0 | 0.0 | 0.00 | 0.00 | 0.00 | 36 | 1013.3 |
| 20260507104855 | 65 | 236 | 0.0 | 0.0 | 0.00 | 0.00 | 0.00 | 36 | 1013.4 |
| 20260507104735 | 65 | 236 | 0.0 | 0.0 | 0.00 | 0.00 | 0.00 | 35 | 1013.3 |
| 20260507104617 | 65 | 236 | 0.0 | 0.0 | 0.00 | 0.00 | 0.00 | 36 | 1013.3 |
| 20260507104520 | 65 | 236 | 0.0 | 0.0 | 0.00 | 0.00 | 0.00 | 35 | 1013.3 |
| 20260507104453 | 65 | 236 | 0.0 | 0.0 | 0.00 | 0.00 | 0.00 | 35 | 1013.3 |
| 20260507104335 | 65 | 236 | 0.0 | 0.0 | 0.00 | 0.00 | 0.00 | 35 | 1013.4 |
| 20260507104217 | 65 | 236 | 0.0 | 0.0 | 0.00 | 0.00 | 0.00 | 35 | 1013.5 |
| 20260507104126 | 65 | 236 | 0.0 | 0.0 | 0.00 | 0.00 | 0.00 | 35 | 1013.5 |
| 20260507104047 | 65 | 236 | 0.0 | 0.0 | 0.00 | 0.00 | 0.00 | 35 | 1013.4 |
| 20260507103957 | 65 | 236 | 0.0 | 0.0 | 0.00 | 0.00 | 0.00 | 35 | 1013.4 |
| 20260507103722 | 65 | 236 | 0.0 | 0.0 | 0.00 | 0.00 | 0.00 | 35 | 1013.4 |
| 20260507103625 | 65 | 236 | 0.0 | 0.0 | 0.00 | 0.00 | 0.00 | 35 | 1013.5 |
| 20260507103534 | 65 | 236 | 0.0 | 0.0 | 0.00 | 0.00 | 0.00 | 35 | 1013.4 |
| 20260507103417 | 65 | 236 | 0.0 | 0.0 | 0.00 | 0.00 | 0.00 | 34 | 1013.5 |
| 20260507103319 | 65 | 236 | 0.0 | 0.0 | 0.00 | 0.00 | 0.00 | 35 | 1013.5 |
| 20260507103221 | 66 | 236 | 0.0 | 0.0 | 0.00 | 0.00 | 0.00 | 34 | 1013.5 |
| 20260507103134 | 66 | 236 | 0.0 | 0.0 | 0.00 | 0.00 | 0.00 | 34 | 1013.5 |
| 20260507103036 | 66 | 236 | 0.0 | 0.0 | 0.00 | 0.00 | 0.00 | 34 | 1013.5 |
| 20260507102917 | 66 | 236 | 0.0 | 0.0 | 0.00 | 0.00 | 0.00 | 34 | 1013.6 |
| 20260507102847 | 66 | 236 | 0.0 | 0.0 | 0.00 | 0.00 | 0.00 | 34 | 1013.5 |
| 20260507102729 | 66 | 236 | 0.0 | 0.0 | 0.00 | 0.00 | 0.00 | 34 | 1013.7 |
| 20260507102658 | 66 | 236 | 0.0 | 0.0 | 0.00 | 0.00 | 0.00 | 34 | 1013.6 |
| 20260507102518 | 66 | 236 | 0.0 | 0.0 | 0.00 | 0.00 | 0.00 | 34 | 1013.6 |
| 20260507102424 | 66 | 236 | 0.0 | 0.0 | 0.00 | 0.00 | 0.00 | 34 | 1013.7 |
| 20260507102335 | 66 | 236 | 0.0 | 0.0 | 0.00 | 0.00 | 0.00 | 34 | 1013.7 |
| 20260507102236 | 66 | 236 | 0.0 | 0.0 | 0.00 | 0.00 | 0.00 | 33 | 1013.7 |
| 20260507102118 | 66 | 236 | 0.0 | 0.0 | 0.00 | 0.00 | 0.00 | 33 | 1013.7 |
| 20260507102021 | 66 | 236 | 0.0 | 0.0 | 0.00 | 0.00 | 0.00 | 33 | 1013.6 |
| 20260507101950 | 66 | 236 | 0.0 | 0.0 | 0.00 | 0.00 | 0.00 | 33 | 1013.7 |
| 20260507101834 | 66 | 236 | 0.0 | 0.0 | 0.00 | 0.00 | 0.00 | 33 | 1013.8 |
| 20260507101716 | 66 | 236 | 0.0 | 0.0 | 0.00 | 0.00 | 0.00 | 33 | 1013.7 |
| 20260507101624 | 66 | 236 | 0.0 | 0.0 | 0.00 | 0.00 | 0.00 | 33 | 1013.8 |
| 20260507101527 | 66 | 236 | 0.0 | 0.0 | 0.00 | 0.00 | 0.00 | 32 | 1013.7 |
| 20260507101455 | 66 | 236 | 0.0 | 0.0 | 0.00 | 0.00 | 0.00 | 33 | 1013.8 |
| 20260507101355 | 66 | 236 | 0.0 | 0.0 | 0.00 | 0.00 | 0.00 | 33 | 1013.8 |
| 20260507101243 | 66 | 236 | 0.0 | 0.0 | 0.00 | 0.00 | 0.00 | 33 | 1013.7 |
| 20260507101143 | 66 | 236 | 0.0 | 0.0 | 0.00 | 0.00 | 0.00 | 33 | 1013.7 |
| 20260507101036 | 66 | 236 | 0.0 | 0.0 | 0.00 | 0.00 | 0.00 | 33 | 1013.7 |
| 20260507100938 | 66 | 236 | 0.0 | 0.0 | 0.00 | 0.00 | 0.00 | 33 | 1013.7 |
| 20260507100825 | 66 | 236 | 0.0 | 0.0 | 0.00 | 0.00 | 0.00 | 33 | 1013.8 |
| 20260507100727 | 66 | 236 | 0.0 | 0.0 | 0.00 | 0.00 | 0.00 | 33 | 1013.7 |
| 20260507100636 | 66 | 236 | 0.0 | 0.0 | 0.00 | 0.00 | 0.00 | 33 | 1013.7 |
| 20260507100516 | 66 | 236 | 0.0 | 0.0 | 0.00 | 0.00 | 0.00 | 33 | 1013.7 |
| 20260507100417 | 66 | 236 | 0.0 | 0.0 | 0.00 | 0.00 | 0.00 | 34 | 1013.7 |
| 20260507100329 | 66 | 236 | 0.0 | 0.0 | 0.00 | 0.00 | 0.00 | 34 | 1013.8 |
| 20260507100232 | 66 | 236 | 0.0 | 0.0 | 0.00 | 0.00 | 0.00 | 34 | 1013.7 |
| 20260507100134 | 66 | 236 | 0.0 | 0.0 | 0.00 | 0.00 | 0.00 | 34 | 1013.8 |
| 20260507100034 | 66 | 236 | 0.0 | 0.0 | 0.00 | 0.00 | 0.00 | 35 | 1013.7 |
| 20260507095925 | 66 | 236 | 0.0 | 0.0 | 0.00 | 0.00 | 0.00 | 35 | 1013.7 |
| 20260507095828 | 66 | 236 | 0.0 | 0.0 | 0.00 | 0.00 | 0.00 | 34 | 1013.8 |
| 20260507095741 | 65 | 236 | 0.0 | 0.0 | 0.00 | 0.00 | 0.00 | 34 | 1013.8 |
| 20260507095622 | 65 | 236 | 0.0 | 0.0 | 0.00 | 0.00 | 0.00 | 35 | 1013.7 |
| 20260507095524 | 65 | 236 | 0.0 | 0.0 | 0.00 | 0.00 | 0.00 | 34 | 1013.7 |
| 20260507095432 | 65 | 236 | 0.0 | 0.0 | 0.00 | 0.00 | 0.00 | 34 | 1013.7 |
| 20260507095333 | 66 | 236 | 0.0 | 0.0 | 0.00 | 0.00 | 0.00 | 35 | 1013.7 |
| 20260507095233 | 66 | 236 | 0.0 | 0.0 | 0.00 | 0.00 | 0.00 | 35 | 1013.7 |
| 20260507095118 | 66 | 236 | 0.0 | 0.0 | 0.00 | 0.00 | 0.00 | 34 | 1013.7 |
| 20260507095028 | 66 | 236 | 0.0 | 0.0 | 0.00 | 0.00 | 0.00 | 34 | 1013.7 |
| 20260507094930 | 66 | 236 | 0.0 | 0.0 | 0.00 | 0.00 | 0.00 | 34 | 1013.7 |
| 20260507094832 | 66 | 236 | 0.0 | 0.0 | 0.00 | 0.00 | 0.00 | 34 | 1013.7 |
| 20260507094741 | 66 | 236 | 0.0 | 0.0 | 0.00 | 0.00 | 0.00 | 34 | 1013.7 |
| 20260507094641 | 66 | 236 | 0.0 | 0.0 | 0.00 | 0.00 | 0.00 | 34 | 1013.7 |
| 20260507094528 | 66 | 236 | 0.0 | 0.0 | 0.00 | 0.00 | 0.00 | 34 | 1013.7 |
| 20260507094433 | 66 | 236 | 0.0 | 0.0 | 0.00 | 0.00 | 0.00 | 34 | 1013.7 |
| 20260507094316 | 66 | 236 | 0.0 | 0.0 | 0.00 | 0.00 | 0.00 | 34 | 1013.7 |
| 20260507094225 | 66 | 236 | 0.0 | 0.0 | 0.00 | 0.00 | 0.00 | 34 | 1013.6 |
| 20260507094127 | 66 | 236 | 0.0 | 0.0 | 0.00 | 0.00 | 0.00 | 33 | 1013.7 |
| 20260507094057 | 66 | 236 | 0.0 | 0.0 | 0.00 | 0.00 | 0.00 | 33 | 1013.7 |
| 20260507093917 | 66 | 236 | 0.0 | 0.0 | 0.00 | 0.00 | 0.00 | 33 | 1013.7 |
| 20260507093822 | 66 | 236 | 0.0 | 0.0 | 0.00 | 0.00 | 0.00 | 32 | 1013.7 |
| 20260507093724 | 66 | 236 | 0.0 | 0.0 | 0.00 | 0.00 | 0.00 | 32 | 1013.7 |
| 20260507093635 | 67 | 236 | 0.0 | 0.0 | 0.00 | 0.00 | 0.00 | 32 | 1013.7 |
| 20260507093535 | 67 | 236 | 0.0 | 0.0 | 0.00 | 0.00 | 0.00 | 32 | 1013.7 |
| 20260507093416 | 67 | 236 | 0.0 | 0.0 | 0.00 | 0.00 | 0.00 | 32 | 1013.7 |
| 20260507093326 | 67 | 236 | 0.0 | 0.0 | 0.00 | 0.00 | 0.00 | 32 | 1013.7 |
| 20260507093232 | 67 | 236 | 0.0 | 0.0 | 0.00 | 0.00 | 0.00 | 32 | 1013.6 |
| 20260507093129 | 67 | 236 | 0.0 | 0.0 | 0.00 | 0.00 | 0.00 | 32 | 1013.6 |
| 20260507093039 | 67 | 236 | 0.0 | 0.0 | 0.00 | 0.00 | 0.00 | 32 | 1013.6 |
| 20260507092921 | 67 | 236 | 0.0 | 0.0 | 0.00 | 0.00 | 0.00 | 31 | 1013.6 |
| 20260507092823 | 67 | 236 | 0.0 | 0.0 | 0.00 | 0.00 | 0.00 | 31 | 1013.5 |
| 20260507092725 | 67 | 236 | 0.0 | 0.0 | 0.00 | 0.00 | 0.00 | 31 | 1013.5 |
| 20260507092637 | 67 | 236 | 0.0 | 0.0 | 0.00 | 0.00 | 0.00 | 32 | 1013.6 |
| 20260507092519 | 67 | 236 | 0.0 | 0.0 | 0.00 | 0.00 | 0.00 | 31 | 1013.5 |
| 20260507092427 | 67 | 236 | 0.0 | 0.0 | 0.00 | 0.00 | 0.00 | 31 | 1013.6 |
| 20260507092349 | 67 | 236 | 0.0 | 0.0 | 0.00 | 0.00 | 0.00 | 31 | 1013.6 |
| 20260507092236 | 67 | 236 | 0.0 | 0.0 | 0.00 | 0.00 | 0.00 | 31 | 1013.6 |
| 20260507092117 | 67 | 236 | 0.0 | 0.0 | 0.00 | 0.00 | 0.00 | 31 | 1013.4 |
| 20260507092018 | 67 | 236 | 0.0 | 0.0 | 0.00 | 0.00 | 0.00 | 31 | 1013.5 |
| 20260507091932 | 67 | 236 | 0.0 | 0.0 | 0.00 | 0.00 | 0.00 | 31 | 1013.5 |
| 20260507091831 | 67 | 236 | 0.0 | 0.0 | 0.00 | 0.00 | 0.00 | 31 | 1013.5 |
| 20260507091742 | 67 | 236 | 0.0 | 0.0 | 0.00 | 0.00 | 0.00 | 31 | 1013.5 |
| 20260507091623 | 67 | 236 | 0.0 | 0.0 | 0.00 | 0.00 | 0.00 | 31 | 1013.6 |
| 20260507091525 | 67 | 236 | 0.0 | 0.0 | 0.00 | 0.00 | 0.00 | 32 | 1013.6 |
| 20260507091434 | 67 | 236 | 0.0 | 0.0 | 0.00 | 0.00 | 0.00 | 32 | 1013.6 |
| 20260507091315 | 67 | 236 | 0.0 | 0.0 | 0.00 | 0.00 | 0.00 | 31 | 1013.6 |
| 20260507091250 | 68 | 236 | 0.0 | 0.0 | 0.00 | 0.00 | 0.00 | 31 | 1013.5 |
| 20260507091130 | 68 | 236 | 0.0 | 0.0 | 0.00 | 0.00 | 0.00 | 31 | 1013.6 |
| 20260507091032 | 68 | 236 | 0.0 | 0.0 | 0.00 | 0.00 | 0.00 | 31 | 1013.5 |
| 20260507090921 | 68 | 236 | 0.0 | 0.0 | 0.00 | 0.00 | 0.00 | 30 | 1013.5 |
| 20260507090821 | 68 | 236 | 0.0 | 0.0 | 0.00 | 0.00 | 0.00 | 30 | 1013.5 |
| 20260507090724 | 68 | 236 | 0.0 | 0.0 | 0.00 | 0.00 | 0.00 | 30 | 1013.5 |
| 20260507090633 | 67 | 236 | 0.0 | 0.0 | 0.00 | 0.00 | 0.00 | 30 | 1013.5 |
| 20260507090519 | 67 | 236 | 0.0 | 0.0 | 0.00 | 0.00 | 0.00 | 31 | 1013.6 |
| 20260507090420 | 67 | 236 | 0.0 | 0.0 | 0.00 | 0.00 | 0.00 | 31 | 1013.5 |
| 20260507090328 | 67 | 236 | 0.0 | 0.0 | 0.00 | 0.00 | 0.00 | 30 | 1013.5 |
| 20260507090250 | 67 | 236 | 0.0 | 0.0 | 0.00 | 0.00 | 0.00 | 30 | 1013.5 |
| 20260507090138 | 67 | 236 | 0.0 | 0.0 | 0.00 | 0.00 | 0.00 | 30 | 1013.5 |
| 20260507090031 | 67 | 236 | 0.0 | 0.0 | 0.00 | 0.00 | 0.00 | 31 | 1013.6 |
| 20260507085926 | 68 | 236 | 0.0 | 0.0 | 0.00 | 0.00 | 0.00 | 30 | 1013.5 |
| 20260507085835 | 68 | 236 | 0.0 | 0.0 | 0.00 | 0.00 | 0.00 | 30 | 1013.6 |
| 20260507085717 | 68 | 236 | 0.0 | 0.0 | 0.00 | 0.00 | 0.00 | 30 | 1013.6 |
| 20260507085620 | 68 | 236 | 0.0 | 0.0 | 0.00 | 0.00 | 0.00 | 30 | 1013.7 |
| 20260507085528 | 68 | 236 | 0.0 | 0.0 | 0.00 | 0.00 | 0.00 | 30 | 1013.6 |
| 20260507085430 | 68 | 236 | 0.0 | 0.0 | 0.00 | 0.00 | 0.00 | 30 | 1013.7 |
| 20260507085315 | 68 | 236 | 0.0 | 0.0 | 0.00 | 0.00 | 0.00 | 30 | 1013.7 |
| 20260507085218 | 68 | 236 | 0.0 | 0.0 | 0.00 | 0.00 | 0.00 | 31 | 1013.6 |
| 20260507085128 | 68 | 236 | 0.0 | 0.0 | 0.00 | 0.00 | 0.00 | 31 | 1013.6 |
| 20260507085029 | 68 | 236 | 0.0 | 0.0 | 0.00 | 0.00 | 0.00 | 31 | 1013.6 |
| 20260507084930 | 68 | 236 | 0.0 | 0.0 | 0.00 | 0.00 | 0.00 | 31 | 1013.6 |
| 20260507084841 | 68 | 236 | 0.0 | 0.0 | 0.00 | 0.00 | 0.00 | 31 | 1013.6 |
| 20260507084742 | 68 | 236 | 0.0 | 0.0 | 0.00 | 0.00 | 0.00 | 31 | 1013.6 |
| 20260507084635 | 68 | 236 | 0.0 | 0.0 | 0.00 | 0.00 | 0.00 | 31 | 1013.6 |
| 20260507084516 | 68 | 236 | 0.0 | 0.0 | 0.00 | 0.00 | 0.00 | 30 | 1013.7 |
| 20260507084417 | 68 | 236 | 0.0 | 0.0 | 0.00 | 0.00 | 0.00 | 30 | 1013.6 |
| 20260507084326 | 68 | 236 | 0.0 | 0.0 | 0.00 | 0.00 | 0.00 | 30 | 1013.6 |
| 20260507084228 | 68 | 236 | 0.0 | 0.0 | 0.00 | 0.00 | 0.00 | 30 | 1013.5 |
| 20260507084135 | 68 | 236 | 0.0 | 0.0 | 0.00 | 0.00 | 0.00 | 30 | 1013.5 |
| 20260507084021 | 68 | 236 | 0.0 | 0.0 | 0.00 | 0.00 | 0.00 | 30 | 1013.6 |
| 20260507083922 | 68 | 236 | 0.0 | 0.0 | 0.00 | 0.00 | 0.00 | 30 | 1013.6 |
| 20260507083824 | 68 | 236 | 0.0 | 0.0 | 0.00 | 0.00 | 0.00 | 30 | 1013.5 |
| 20260507083733 | 68 | 236 | 0.0 | 0.0 | 0.00 | 0.00 | 0.00 | 30 | 1013.6 |
| 20260507083635 | 68 | 236 | 0.0 | 0.0 | 0.00 | 0.00 | 0.00 | 30 | 1013.5 |
| 20260507083516 | 68 | 236 | 0.0 | 0.0 | 0.00 | 0.00 | 0.00 | 30 | 1013.6 |
| 20260507083444 | 68 | 236 | 0.0 | 0.0 | 0.00 | 0.00 | 0.00 | 30 | 1013.5 |
| 20260507083337 | 68 | 236 | 0.0 | 0.0 | 0.00 | 0.00 | 0.00 | 30 | 1013.5 |
| 20260507083218 | 69 | 236 | 0.0 | 0.0 | 0.00 | 0.00 | 0.00 | 30 | 1013.6 |
| 20260507083121 | 69 | 236 | 0.0 | 0.0 | 0.00 | 0.00 | 0.00 | 30 | 1013.6 |
| 20260507083020 | 69 | 236 | 0.0 | 0.0 | 0.00 | 0.00 | 0.00 | 30 | 1013.7 |
| 20260507082929 | 69 | 236 | 0.0 | 0.0 | 0.00 | 0.00 | 0.00 | 30 | 1013.7 |
| 20260507082831 | 69 | 236 | 0.0 | 0.0 | 0.00 | 0.00 | 0.00 | 30 | 1013.8 |
| 20260507082716 | 69 | 236 | 0.0 | 0.0 | 0.00 | 0.00 | 0.00 | 30 | 1013.8 |
| 20260507082645 | 69 | 236 | 0.0 | 0.0 | 0.00 | 0.00 | 0.00 | 30 | 1013.8 |
| 20260507082526 | 69 | 236 | 0.0 | 0.0 | 0.00 | 0.00 | 0.00 | 30 | 1013.7 |
| 20260507082428 | 69 | 236 | 0.0 | 0.0 | 0.00 | 0.00 | 0.00 | 30 | 1013.7 |
| 20260507082339 | 69 | 236 | 0.0 | 0.0 | 0.00 | 0.00 | 0.00 | 30 | 1013.7 |
| 20260507082220 | 69 | 236 | 0.0 | 0.0 | 0.00 | 0.00 | 0.00 | 30 | 1013.8 |
| 20260507082127 | 69 | 236 | 0.0 | 0.0 | 0.00 | 0.00 | 0.00 | 31 | 1013.8 |
| 20260507082032 | 69 | 236 | 0.0 | 0.0 | 0.00 | 0.00 | 0.00 | 30 | 1013.8 |
| 20260507081933 | 69 | 236 | 0.0 | 0.0 | 0.00 | 0.00 | 0.00 | 30 | 1013.8 |
| 20260507081821 | 69 | 236 | 0.0 | 0.0 | 0.00 | 0.00 | 0.00 | 30 | 1013.9 |
| 20260507081720 | 69 | 236 | 0.0 | 0.0 | 0.00 | 0.00 | 0.00 | 30 | 1013.8 |
| 20260507081649 | 69 | 236 | 0.0 | 0.0 | 0.00 | 0.00 | 0.00 | 30 | 1013.8 |
| 20260507081535 | 69 | 236 | 0.0 | 0.0 | 0.00 | 0.00 | 0.00 | 30 | 1013.8 |
| 20260507081415 | 69 | 236 | 0.0 | 0.0 | 0.00 | 0.00 | 0.00 | 30 | 1013.8 |
| 20260507081317 | 69 | 236 | 0.0 | 0.0 | 0.00 | 0.00 | 0.00 | 30 | 1013.8 |
| 20260507081250 | 69 | 236 | 0.0 | 0.0 | 0.00 | 0.00 | 0.00 | 30 | 1013.9 |
| 20260507081130 | 69 | 236 | 0.0 | 0.0 | 0.00 | 0.00 | 0.00 | 30 | 1013.8 |
| 20260507081039 | 69 | 236 | 0.0 | 0.0 | 0.00 | 0.00 | 0.00 | 30 | 1013.8 |
| 20260507080920 | 69 | 236 | 0.0 | 0.0 | 0.00 | 0.00 | 0.00 | 30 | 1013.9 |
| 20260507080823 | 69 | 236 | 0.0 | 0.0 | 0.00 | 0.00 | 0.00 | 30 | 1013.9 |
| 20260507080725 | 69 | 236 | 0.0 | 0.0 | 0.00 | 0.00 | 0.00 | 30 | 1013.9 |
| 20260507080639 | 69 | 236 | 0.0 | 0.0 | 0.00 | 0.00 | 0.00 | 30 | 1013.9 |
| 20260507080521 | 69 | 236 | 0.0 | 0.0 | 0.00 | 0.00 | 0.00 | 30 | 1013.9 |
| 20260507080444 | 69 | 236 | 0.0 | 0.0 | 0.00 | 0.00 | 0.00 | 30 | 1013.9 |
| 20260507080331 | 69 | 236 | 0.0 | 0.0 | 0.00 | 0.00 | 0.00 | 30 | 1014.0 |
| 20260507080234 | 69 | 236 | 0.0 | 0.0 | 0.00 | 0.00 | 0.00 | 30 | 1013.9 |
| 20260507080136 | 69 | 236 | 0.0 | 0.0 | 0.00 | 0.00 | 0.00 | 29 | 1013.9 |
| 20260507080034 | 69 | 236 | 0.0 | 0.0 | 0.00 | 0.00 | 0.00 | 29 | 1014.0 |
| 20260507075929 | 69 | 236 | 0.0 | 0.0 | 0.00 | 0.00 | 0.00 | 29 | 1014.0 |
| 20260507075826 | 69 | 236 | 0.0 | 0.0 | 0.00 | 0.00 | 0.00 | 29 | 1013.9 |
| 20260507075726 | 69 | 236 | 0.0 | 0.0 | 0.00 | 0.00 | 0.00 | 29 | 1014.0 |
| 20260507075629 | 69 | 236 | 0.0 | 0.0 | 0.00 | 0.00 | 0.00 | 29 | 1013.9 |
| 20260507075535 | 69 | 236 | 0.0 | 0.0 | 0.00 | 0.00 | 0.00 | 29 | 1014.0 |
| 20260507075417 | 69 | 236 | 0.0 | 0.0 | 0.00 | 0.00 | 0.00 | 29 | 1013.9 |
| 20260507075323 | 70 | 236 | 0.0 | 0.0 | 0.00 | 0.00 | 0.00 | 29 | 1013.9 |
| 20260507075234 | 70 | 236 | 0.0 | 0.0 | 0.00 | 0.00 | 0.00 | 29 | 1013.8 |
| 20260507075135 | 70 | 236 | 0.0 | 0.0 | 0.00 | 0.00 | 0.00 | 29 | 1013.9 |
| 20260507075018 | 70 | 236 | 0.0 | 0.0 | 0.00 | 0.00 | 0.00 | 29 | 1013.9 |
| 20260507074920 | 70 | 236 | 0.0 | 0.0 | 0.00 | 0.00 | 0.00 | 29 | 1013.9 |
| 20260507074829 | 70 | 236 | 0.0 | 0.0 | 0.00 | 0.00 | 0.00 | 29 | 1013.9 |
| 20260507074755 | 70 | 236 | 0.0 | 0.0 | 0.00 | 0.00 | 0.00 | 29 | 1013.9 |
| 20260507074615 | 70 | 236 | 0.0 | 0.0 | 0.00 | 0.00 | 0.00 | 29 | 1013.9 |
| 20260507074524 | 70 | 236 | 0.0 | 0.0 | 0.00 | 0.00 | 0.00 | 29 | 1013.9 |
| 20260507074426 | 70 | 236 | 0.0 | 0.0 | 0.00 | 0.00 | 0.00 | 29 | 1013.9 |
| 20260507074328 | 70 | 236 | 0.0 | 0.0 | 0.00 | 0.00 | 0.00 | 29 | 1013.9 |
| 20260507074238 | 71 | 236 | 0.0 | 0.0 | 0.00 | 0.00 | 0.00 | 29 | 1013.9 |
| 20260507074123 | 71 | 236 | 0.0 | 0.0 | 0.00 | 0.00 | 0.00 | 28 | 1013.8 |
| 20260507074025 | 71 | 236 | 0.0 | 0.0 | 0.00 | 0.00 | 0.00 | 28 | 1013.8 |
| 20260507073934 | 71 | 236 | 0.0 | 0.0 | 0.00 | 0.00 | 0.00 | 28 | 1013.8 |
| 20260507073816 | 71 | 236 | 0.0 | 0.0 | 0.00 | 0.00 | 0.00 | 28 | 1013.8 |
| 20260507073718 | 71 | 236 | 0.0 | 0.0 | 0.00 | 0.00 | 0.00 | 28 | 1013.8 |
| 20260507073621 | 71 | 236 | 0.0 | 0.0 | 0.00 | 0.00 | 0.00 | 28 | 1013.9 |
| 20260507073505 | 71 | 236 | 0.0 | 0.0 | 0.00 | 0.00 | 0.00 | 28 | 1013.8 |
| 20260507073217 | 71 | 236 | 0.0 | 0.0 | 0.00 | 0.00 | 0.00 | 28 | 1013.9 |
| 20260507073126 | 71 | 236 | 0.0 | 0.0 | 0.00 | 0.00 | 0.00 | 28 | 1013.8 |
| 20260507073027 | 71 | 236 | 0.0 | 0.0 | 0.00 | 0.00 | 0.00 | 28 | 1013.8 |
| 20260507072957 | 71 | 236 | 0.0 | 0.0 | 0.00 | 0.00 | 0.00 | 28 | 1013.8 |
| 20260507072821 | 71 | 236 | 0.0 | 0.0 | 0.00 | 0.00 | 0.00 | 28 | 1013.8 |
| 20260507072723 | 71 | 236 | 0.0 | 0.0 | 0.00 | 0.00 | 0.00 | 28 | 1013.9 |
| 20260507072652 | 71 | 236 | 0.0 | 0.0 | 0.00 | 0.00 | 0.00 | 28 | 1013.8 |
| 20260507072533 | 71 | 236 | 0.0 | 0.0 | 0.00 | 0.00 | 0.00 | 28 | 1013.9 |
| 20260507072435 | 71 | 236 | 0.0 | 0.0 | 0.00 | 0.00 | 0.00 | 28 | 1013.8 |
| 20260507072317 | 71 | 236 | 0.0 | 0.0 | 0.00 | 0.00 | 0.00 | 28 | 1013.9 |
| 20260507072245 | 71 | 236 | 0.0 | 0.0 | 0.00 | 0.00 | 0.00 | 28 | 1013.9 |
| 20260507072140 | 71 | 236 | 0.0 | 0.0 | 0.00 | 0.00 | 0.00 | 28 | 1013.9 |
| 20260507072022 | 71 | 236 | 0.0 | 0.0 | 0.00 | 0.00 | 0.00 | 28 | 1013.9 |
| 20260507071922 | 71 | 236 | 0.0 | 0.0 | 0.00 | 0.00 | 0.00 | 28 | 1013.9 |
| 20260507071822 | 71 | 236 | 0.0 | 0.0 | 0.00 | 0.00 | 0.00 | 28 | 1013.9 |
| 20260507071750 | 71 | 236 | 0.0 | 0.0 | 0.00 | 0.00 | 0.00 | 28 | 1013.9 |
| 20260507071631 | 71 | 236 | 0.0 | 0.0 | 0.00 | 0.00 | 0.00 | 28 | 1013.9 |
| 20260507071517 | 71 | 236 | 0.0 | 0.0 | 0.00 | 0.00 | 0.00 | 28 | 1013.9 |
| 20260507071445 | 71 | 236 | 0.0 | 0.0 | 0.00 | 0.00 | 0.00 | 28 | 1013.9 |
| 20260507071325 | 71 | 236 | 0.0 | 0.0 | 0.00 | 0.00 | 0.00 | 28 | 1013.9 |
| 20260507071235 | 71 | 236 | 0.0 | 0.0 | 0.00 | 0.00 | 0.00 | 28 | 1013.9 |
| 20260507071116 | 71 | 236 | 0.0 | 0.0 | 0.00 | 0.00 | 0.00 | 28 | 1013.9 |
| 20260507071018 | 71 | 236 | 0.0 | 0.0 | 0.00 | 0.00 | 0.00 | 28 | 1014.0 |
| 20260507070947 | 71 | 236 | 0.0 | 0.0 | 0.00 | 0.00 | 0.00 | 28 | 1013.9 |
| 20260507070832 | 71 | 236 | 0.0 | 0.0 | 0.00 | 0.00 | 0.00 | 28 | 1013.9 |
| 20260507070802 | 71 | 236 | 0.0 | 0.0 | 0.00 | 0.00 | 0.00 | 28 | 1013.9 |
| 20260507070622 | 72 | 236 | 0.0 | 0.0 | 0.00 | 0.00 | 0.00 | 28 | 1013.9 |
| 20260507070525 | 72 | 236 | 0.0 | 0.0 | 0.00 | 0.00 | 0.00 | 28 | 1013.9 |
| 20260507070427 | 72 | 236 | 0.0 | 0.0 | 0.00 | 0.00 | 0.00 | 28 | 1013.9 |
| 20260507070357 | 72 | 236 | 0.0 | 0.0 | 0.00 | 0.00 | 0.00 | 28 | 1013.9 |
| 20260507070223 | 72 | 236 | 0.0 | 0.0 | 0.00 | 0.00 | 0.00 | 28 | 1013.9 |
| 20260507070127 | 72 | 236 | 0.0 | 0.0 | 0.00 | 0.00 | 0.00 | 27 | 1014.0 |
| 20260507070041 | 72 | 236 | 0.0 | 0.0 | 0.00 | 0.00 | 0.00 | 27 | 1014.0 |
| 20260507065939 | 72 | 236 | 0.0 | 0.0 | 0.00 | 0.00 | 0.00 | 27 | 1013.9 |
| 20260507065821 | 72 | 236 | 0.0 | 0.0 | 0.00 | 0.00 | 0.00 | 28 | 1013.9 |
| 20260507065723 | 72 | 236 | 0.0 | 0.0 | 0.00 | 0.00 | 0.00 | 28 | 1013.9 |
| 20260507065625 | 72 | 236 | 0.0 | 0.0 | 0.00 | 0.00 | 0.00 | 28 | 1013.9 |
| 20260507065517 | 72 | 236 | 0.0 | 0.0 | 0.00 | 0.00 | 0.00 | 28 | 1013.9 |
| 20260507065419 | 71 | 236 | 0.0 | 0.0 | 0.00 | 0.00 | 0.00 | 28 | 1013.9 |
| 20260507065321 | 71 | 236 | 0.0 | 0.0 | 0.00 | 0.00 | 0.00 | 28 | 1013.9 |
| 20260507065231 | 71 | 236 | 0.0 | 0.0 | 0.00 | 0.00 | 0.00 | 28 | 1013.9 |
| 20260507065134 | 71 | 236 | 0.0 | 0.0 | 0.00 | 0.00 | 0.00 | 28 | 1013.8 |
| 20260507065036 | 72 | 236 | 0.0 | 0.0 | 0.00 | 0.00 | 0.00 | 28 | 1013.8 |
| 20260507064922 | 72 | 236 | 0.0 | 0.0 | 0.00 | 0.00 | 0.00 | 28 | 1013.7 |
| 20260507064831 | 72 | 236 | 0.0 | 0.0 | 0.00 | 0.00 | 0.00 | 28 | 1013.7 |
| 20260507064733 | 72 | 236 | 0.0 | 0.0 | 0.00 | 0.00 | 0.00 | 28 | 1013.8 |
| 20260507064635 | 72 | 236 | 0.0 | 0.0 | 0.00 | 0.00 | 0.00 | 27 | 1013.7 |
| 20260507064543 | 72 | 236 | 0.0 | 0.0 | 0.00 | 0.00 | 0.00 | 27 | 1013.8 |
| 20260507064425 | 72 | 236 | 0.0 | 0.0 | 0.00 | 0.00 | 0.00 | 27 | 1013.7 |
| 20260507064331 | 72 | 236 | 0.0 | 0.0 | 0.00 | 0.00 | 0.00 | 27 | 1013.8 |
| 20260507064241 | 72 | 236 | 0.0 | 0.0 | 0.00 | 0.00 | 0.00 | 28 | 1013.8 |
| 20260507064122 | 72 | 236 | 0.0 | 0.0 | 0.00 | 0.00 | 0.00 | 27 | 1013.9 |
| 20260507064025 | 72 | 236 | 0.0 | 0.0 | 0.00 | 0.00 | 0.00 | 27 | 1014.0 |
| 20260507063926 | 72 | 236 | 0.0 | 0.0 | 0.00 | 0.00 | 0.00 | 27 | 1014.0 |
| 20260507063834 | 72 | 236 | 0.0 | 0.0 | 0.00 | 0.00 | 0.00 | 27 | 1014.1 |
| 20260507063720 | 72 | 236 | 0.0 | 0.0 | 0.00 | 0.00 | 0.00 | 28 | 1013.9 |
| 20260507063629 | 72 | 236 | 0.0 | 0.0 | 0.00 | 0.00 | 0.00 | 27 | 1013.9 |
| 20260507063551 | 72 | 236 | 0.0 | 0.0 | 0.00 | 0.00 | 0.00 | 27 | 1013.9 |
| 20260507063439 | 72 | 236 | 0.0 | 0.0 | 0.00 | 0.00 | 0.00 | 27 | 1014.0 |
| 20260507063321 | 72 | 236 | 0.0 | 0.0 | 0.00 | 0.00 | 0.00 | 27 | 1014.0 |
| 20260507063223 | 72 | 236 | 0.0 | 0.0 | 0.00 | 0.00 | 0.00 | 27 | 1014.0 |
| 20260507063041 | 72 | 236 | 0.0 | 0.0 | 0.00 | 0.00 | 0.00 | 27 | 1013.9 |
| 20260507062923 | 73 | 236 | 0.0 | 0.0 | 0.00 | 0.00 | 0.00 | 27 | 1013.9 |
| 20260507062825 | 73 | 236 | 0.0 | 0.0 | 0.00 | 0.00 | 0.00 | 27 | 1014.0 |
| 20260507062727 | 73 | 236 | 0.0 | 0.0 | 0.00 | 0.00 | 0.00 | 27 | 1014.0 |
| 20260507062636 | 73 | 236 | 0.0 | 0.0 | 0.00 | 0.00 | 0.00 | 27 | 1013.9 |
| 20260507062522 | 73 | 236 | 0.0 | 0.0 | 0.00 | 0.00 | 0.00 | 27 | 1014.0 |
| 20260507062423 | 73 | 236 | 0.0 | 0.0 | 0.00 | 0.00 | 0.00 | 27 | 1013.9 |
| 20260507062325 | 73 | 236 | 0.0 | 0.0 | 0.00 | 0.00 | 0.00 | 27 | 1013.9 |
| 20260507062234 | 73 | 236 | 0.0 | 0.0 | 0.00 | 0.00 | 0.00 | 27 | 1013.9 |
| 20260507062116 | 73 | 236 | 0.0 | 0.0 | 0.00 | 0.00 | 0.00 | 27 | 1013.9 |
| 20260507062038 | 73 | 236 | 0.0 | 0.0 | 0.00 | 0.00 | 0.00 | 26 | 1013.9 |
| 20260507061926 | 73 | 236 | 0.0 | 0.0 | 0.00 | 0.00 | 0.00 | 27 | 1013.9 |
| 20260507061900 | 73 | 236 | 0.0 | 0.0 | 0.00 | 0.00 | 0.00 | 27 | 1014.0 |
| 20260507061741 | 73 | 236 | 0.0 | 0.0 | 0.00 | 0.00 | 0.00 | 27 | 1013.9 |
| 20260507061627 | 73 | 236 | 0.0 | 0.0 | 0.00 | 0.00 | 0.00 | 27 | 1013.8 |
| 20260507061530 | 73 | 236 | 0.0 | 0.0 | 0.00 | 0.00 | 0.00 | 27 | 1013.8 |
| 20260507061459 | 73 | 236 | 0.0 | 0.0 | 0.00 | 0.00 | 0.00 | 27 | 1013.9 |
| 20260507061340 | 73 | 236 | 0.0 | 0.0 | 0.00 | 0.00 | 0.00 | 27 | 1013.9 |
| 20260507061222 | 73 | 236 | 0.0 | 0.0 | 0.00 | 0.00 | 0.00 | 27 | 1013.7 |
| 20260507061131 | 73 | 236 | 0.0 | 0.0 | 0.00 | 0.00 | 0.00 | 27 | 1013.8 |
| 20260507061018 | 73 | 236 | 0.0 | 0.0 | 0.00 | 0.00 | 0.00 | 27 | 1013.8 |
| 20260507060918 | 73 | 236 | 0.0 | 0.0 | 0.00 | 0.00 | 0.00 | 27 | 1013.9 |
| 20260507060820 | 73 | 236 | 0.0 | 0.0 | 0.00 | 0.00 | 0.00 | 27 | 1013.8 |
| 20260507060729 | 73 | 236 | 0.0 | 0.0 | 0.00 | 0.00 | 0.00 | 27 | 1013.8 |
| 20260507060631 | 73 | 236 | 0.0 | 0.0 | 0.00 | 0.00 | 0.00 | 27 | 1013.8 |
| 20260507060600 | 73 | 236 | 0.0 | 0.0 | 0.00 | 0.00 | 0.00 | 27 | 1013.8 |
| 20260507060425 | 73 | 236 | 0.0 | 0.0 | 0.00 | 0.00 | 0.00 | 27 | 1013.8 |
| 20260507060326 | 73 | 236 | 0.0 | 0.0 | 0.00 | 0.00 | 0.00 | 27 | 1013.9 |
| 20260507060235 | 73 | 236 | 0.0 | 0.0 | 0.00 | 0.00 | 0.00 | 27 | 1013.9 |
| 20260507060137 | 73 | 236 | 0.0 | 0.0 | 0.00 | 0.00 | 0.00 | 27 | 1013.9 |
| 20260507060052 | 73 | 236 | 0.0 | 0.0 | 0.00 | 0.00 | 0.00 | 27 | 1013.9 |
| 20260507055916 | 73 | 236 | 0.0 | 0.0 | 0.00 | 0.00 | 0.00 | 27 | 1014.0 |
| 20260507055830 | 73 | 236 | 0.0 | 0.0 | 0.00 | 0.00 | 0.00 | 27 | 1013.9 |
| 20260507055732 | 73 | 236 | 0.0 | 0.0 | 0.00 | 0.00 | 0.00 | 27 | 1013.9 |
| 20260507055632 | 73 | 236 | 0.0 | 0.0 | 0.00 | 0.00 | 0.00 | 28 | 1014.0 |
| 20260507055542 | 73 | 236 | 0.0 | 0.0 | 0.00 | 0.00 | 0.00 | 28 | 1014.0 |
| 20260507055443 | 73 | 236 | 0.0 | 0.0 | 0.00 | 0.00 | 0.00 | 28 | 1013.9 |
| 20260507055351 | 73 | 236 | 0.0 | 0.0 | 0.00 | 0.00 | 0.00 | 28 | 1013.9 |
| 20260507055215 | 73 | 236 | 0.0 | 0.0 | 0.00 | 0.00 | 0.00 | 28 | 1014.0 |
| 20260507055117 | 73 | 236 | 0.0 | 0.0 | 0.00 | 0.00 | 0.00 | 28 | 1014.0 |
| 20260507055026 | 73 | 236 | 0.0 | 0.0 | 0.00 | 0.00 | 0.00 | 28 | 1013.9 |
| 20260507054948 | 73 | 236 | 0.0 | 0.0 | 0.00 | 0.00 | 0.00 | 28 | 1014.0 |
| 20260507054835 | 73 | 236 | 0.0 | 0.0 | 0.00 | 0.00 | 0.00 | 28 | 1014.0 |
| 20260507054717 | 73 | 236 | 0.0 | 0.0 | 0.00 | 0.00 | 0.00 | 28 | 1013.9 |
| 20260507054618 | 74 | 236 | 0.0 | 0.0 | 0.00 | 0.00 | 0.00 | 27 | 1013.9 |
| 20260507054530 | 73 | 236 | 0.0 | 0.0 | 0.00 | 0.00 | 0.00 | 27 | 1014.0 |
| 20260507054431 | 73 | 236 | 0.0 | 0.0 | 0.00 | 0.00 | 0.00 | 27 | 1013.9 |
| 20260507054332 | 73 | 236 | 0.0 | 0.0 | 0.00 | 0.00 | 0.00 | 27 | 1013.9 |
| 20260507054240 | 74 | 236 | 0.0 | 0.0 | 0.00 | 0.00 | 0.00 | 27 | 1013.9 |
| 20260507054121 | 74 | 236 | 0.0 | 0.0 | 0.00 | 0.00 | 0.00 | 27 | 1013.9 |
| 20260507054050 | 74 | 236 | 0.0 | 0.0 | 0.00 | 0.00 | 0.00 | 27 | 1013.9 |
| 20260507053931 | 74 | 236 | 0.0 | 0.0 | 0.00 | 0.00 | 0.00 | 27 | 1013.9 |
| 20260507053818 | 74 | 236 | 0.0 | 0.0 | 0.00 | 0.00 | 0.00 | 27 | 1013.9 |
| 20260507053726 | 74 | 236 | 0.0 | 0.0 | 0.00 | 0.00 | 0.00 | 27 | 1013.9 |
| 20260507053627 | 74 | 236 | 0.0 | 0.0 | 0.00 | 0.00 | 0.00 | 27 | 1013.9 |
| 20260507053516 | 74 | 236 | 0.0 | 0.0 | 0.00 | 0.00 | 0.00 | 27 | 1013.9 |
| 20260507053418 | 74 | 236 | 0.0 | 0.0 | 0.00 | 0.00 | 0.00 | 27 | 1013.9 |
| 20260507053320 | 74 | 236 | 0.0 | 0.0 | 0.00 | 0.00 | 0.00 | 27 | 1013.8 |
| 20260507053228 | 74 | 236 | 0.0 | 0.0 | 0.00 | 0.00 | 0.00 | 27 | 1013.8 |
| 20260507053135 | 74 | 236 | 0.0 | 0.0 | 0.00 | 0.00 | 0.00 | 27 | 1013.8 |
| 20260507053017 | 74 | 236 | 0.0 | 0.0 | 0.00 | 0.00 | 0.00 | 27 | 1013.8 |
| 20260507052918 | 74 | 236 | 0.0 | 0.0 | 0.00 | 0.00 | 0.00 | 26 | 1013.8 |
| 20260507052827 | 74 | 236 | 0.0 | 0.0 | 0.00 | 0.00 | 0.00 | 26 | 1013.7 |
| 20260507052755 | 74 | 236 | 0.0 | 0.0 | 0.00 | 0.00 | 0.00 | 26 | 1013.7 |
| 20260507052655 | 74 | 236 | 0.0 | 0.0 | 0.00 | 0.00 | 0.00 | 26 | 1013.6 |
| 20260507052544 | 74 | 236 | 0.0 | 0.0 | 0.00 | 0.00 | 0.00 | 26 | 1013.7 |
| 20260507052429 | 74 | 236 | 0.0 | 0.0 | 0.00 | 0.00 | 0.00 | 26 | 1013.7 |
| 20260507052337 | 75 | 236 | 0.0 | 0.0 | 0.00 | 0.00 | 0.00 | 26 | 1013.7 |
| 20260507052239 | 75 | 236 | 0.0 | 0.0 | 0.00 | 0.00 | 0.00 | 26 | 1013.8 |
| 20260507052119 | 75 | 236 | 0.0 | 0.0 | 0.00 | 0.00 | 0.00 | 26 | 1013.7 |
| 20260507052028 | 75 | 236 | 0.0 | 0.0 | 0.00 | 0.00 | 0.00 | 26 | 1013.8 |
| 20260507051928 | 75 | 236 | 0.0 | 0.0 | 0.00 | 0.00 | 0.00 | 25 | 1013.8 |
| 20260507051838 | 75 | 236 | 0.0 | 0.0 | 0.00 | 0.00 | 0.00 | 25 | 1013.9 |
| 20260507051723 | 75 | 236 | 0.0 | 0.0 | 0.00 | 0.00 | 0.00 | 25 | 1013.8 |
| 20260507051625 | 75 | 236 | 0.0 | 0.0 | 0.00 | 0.00 | 0.00 | 25 | 1013.8 |
| 20260507051535 | 75 | 236 | 0.0 | 0.0 | 0.00 | 0.00 | 0.00 | 25 | 1013.7 |
| 20260507051418 | 76 | 236 | 0.0 | 0.0 | 0.00 | 0.00 | 0.00 | 25 | 1013.8 |
| 20260507051320 | 76 | 236 | 0.0 | 0.0 | 0.00 | 0.00 | 0.00 | 24 | 1013.8 |
| 20260507051221 | 76 | 236 | 0.0 | 0.0 | 0.00 | 0.00 | 0.00 | 24 | 1013.8 |
| 20260507051133 | 76 | 236 | 0.0 | 0.0 | 0.00 | 0.00 | 0.00 | 24 | 1013.8 |
| 20260507051035 | 76 | 236 | 0.0 | 0.0 | 0.00 | 0.00 | 0.00 | 24 | 1013.8 |
| 20260507050918 | 76 | 236 | 0.0 | 3.0 | 0.00 | 0.00 | 0.00 | 24 | 1013.7 |
| 20260507050847 | 76 | 236 | 0.0 | 3.0 | 0.00 | 0.00 | 0.00 | 24 | 1013.7 |
| 20260507050727 | 76 | 236 | 0.0 | 4.0 | 0.00 | 0.00 | 0.00 | 24 | 1013.7 |
| 20260507050629 | 76 | 236 | 0.0 | 4.0 | 0.00 | 0.00 | 0.00 | 24 | 1013.6 |
| 20260507050523 | 76 | 236 | 0.0 | 4.0 | 0.00 | 0.00 | 0.00 | 24 | 1013.7 |
| 20260507050422 | 76 | 236 | 0.0 | 4.0 | 0.00 | 0.00 | 0.00 | 23 | 1013.7 |
| 20260507050331 | 76 | 236 | 0.0 | 4.0 | 0.00 | 0.00 | 0.00 | 24 | 1013.6 |
| 20260507050234 | 76 | 236 | 0.0 | 4.0 | 0.00 | 0.00 | 0.00 | 23 | 1013.7 |
| 20260507050143 | 76 | 236 | 1.0 | 4.0 | 0.00 | 0.00 | 0.00 | 23 | 1013.7 |
| 20260507050104 | 76 | 236 | 1.0 | 4.0 | 0.00 | 0.00 | 0.00 | 23 | 1013.7 |
| 20260507045953 | 76 | 236 | 1.0 | 4.0 | 0.00 | 0.00 | 0.00 | 23 | 1013.6 |
| 20260507045841 | 76 | 236 | 1.0 | 4.0 | 0.00 | 0.00 | 0.00 | 24 | 1013.6 |
| 20260507045727 | 76 | 236 | 0.0 | 4.0 | 0.00 | 0.00 | 0.00 | 24 | 1013.6 |
| 20260507045629 | 76 | 236 | 0.0 | 3.0 | 0.00 | 0.00 | 0.00 | 24 | 1013.5 |
| 20260507045531 | 76 | 236 | 0.0 | 3.0 | 0.00 | 0.00 | 0.00 | 24 | 1013.6 |
| 20260507045419 | 76 | 236 | 0.0 | 3.0 | 0.00 | 0.00 | 0.00 | 24 | 1013.6 |
| 20260507045320 | 76 | 236 | 0.0 | 0.0 | 0.00 | 0.00 | 0.00 | 24 | 1013.6 |
| 20260507045222 | 76 | 236 | 0.0 | 0.0 | 0.00 | 0.00 | 0.00 | 24 | 1013.6 |
| 20260507045129 | 76 | 236 | 0.0 | 0.0 | 0.00 | 0.00 | 0.00 | 24 | 1013.7 |
| 20260507045044 | 76 | 236 | 0.0 | 0.0 | 0.00 | 0.00 | 0.00 | 24 | 1013.6 |
| 20260507044921 | 76 | 236 | 0.0 | 0.0 | 0.00 | 0.00 | 0.00 | 24 | 1013.5 |
| 20260507044850 | 76 | 236 | 0.0 | 0.0 | 0.00 | 0.00 | 0.00 | 24 | 1013.6 |
| 20260507044758 | 76 | 236 | 0.0 | 0.0 | 0.00 | 0.00 | 0.00 | 24 | 1013.5 |
| 20260507044640 | 76 | 236 | 0.0 | 0.0 | 0.00 | 0.00 | 0.00 | 24 | 1013.7 |
| 20260507044520 | 76 | 236 | 0.0 | 0.0 | 0.00 | 0.00 | 0.00 | 24 | 1013.7 |
| 20260507044430 | 76 | 236 | 0.0 | 0.0 | 0.00 | 0.00 | 0.00 | 24 | 1013.7 |
| 20260507044316 | 76 | 236 | 0.0 | 0.0 | 0.00 | 0.00 | 0.00 | 24 | 1013.7 |
| 20260507044217 | 76 | 236 | 0.0 | 0.0 | 0.00 | 0.00 | 0.00 | 24 | 1013.7 |
| 20260507044126 | 76 | 236 | 0.0 | 0.0 | 0.00 | 0.00 | 0.00 | 24 | 1013.7 |
| 20260507044027 | 76 | 236 | 0.0 | 0.0 | 0.00 | 0.00 | 0.00 | 24 | 1013.7 |
| 20260507043930 | 76 | 236 | 0.0 | 0.0 | 0.00 | 0.00 | 0.00 | 24 | 1013.7 |
| 20260507043820 | 76 | 236 | 0.0 | 0.0 | 0.00 | 0.00 | 0.00 | 24 | 1013.6 |
| 20260507043721 | 76 | 236 | 0.0 | 0.0 | 0.00 | 0.00 | 0.00 | 24 | 1013.6 |
| 20260507043628 | 76 | 236 | 0.0 | 0.0 | 0.00 | 0.00 | 0.00 | 24 | 1013.6 |
| 20260507043536 | 76 | 236 | 0.0 | 0.0 | 0.00 | 0.00 | 0.00 | 24 | 1013.6 |
| 20260507043418 | 76 | 236 | 0.0 | 0.0 | 0.00 | 0.00 | 0.00 | 24 | 1013.7 |
| 20260507043321 | 76 | 236 | 0.0 | 0.0 | 0.00 | 0.00 | 0.00 | 24 | 1013.6 |
| 20260507043222 | 76 | 236 | 0.0 | 0.0 | 0.00 | 0.00 | 0.00 | 25 | 1013.5 |
| 20260507043131 | 76 | 236 | 0.0 | 0.0 | 0.00 | 0.00 | 0.00 | 25 | 1013.6 |
| 20260507043018 | 76 | 236 | 0.0 | 0.0 | 0.00 | 0.00 | 0.00 | 25 | 1013.5 |
| 20260507042918 | 76 | 236 | 0.0 | 0.0 | 0.00 | 0.00 | 0.00 | 25 | 1013.6 |
| 20260507042827 | 76 | 236 | 0.0 | 0.0 | 0.00 | 0.00 | 0.00 | 25 | 1013.6 |
| 20260507042727 | 76 | 236 | 0.0 | 0.0 | 0.00 | 0.00 | 0.00 | 25 | 1013.6 |
| 20260507042617 | 76 | 236 | 0.0 | 0.0 | 0.00 | 0.00 | 0.00 | 25 | 1013.5 |
| 20260507042518 | 76 | 236 | 0.0 | 0.0 | 0.00 | 0.00 | 0.00 | 25 | 1013.6 |
| 20260507042424 | 76 | 236 | 0.0 | 0.0 | 0.00 | 0.00 | 0.00 | 26 | 1013.6 |
| 20260507042334 | 76 | 236 | 0.0 | 0.0 | 0.00 | 0.00 | 0.00 | 26 | 1013.6 |
| 20260507042216 | 76 | 236 | 0.0 | 0.0 | 0.00 | 0.00 | 0.00 | 26 | 1013.5 |
| 20260507042118 | 76 | 236 | 0.0 | 0.0 | 0.00 | 0.00 | 0.00 | 26 | 1013.4 |
| 20260507042047 | 76 | 236 | 0.0 | 0.0 | 0.00 | 0.00 | 0.00 | 26 | 1013.4 |
| 20260507041927 | 76 | 236 | 0.0 | 0.0 | 0.00 | 0.00 | 0.00 | 27 | 1013.4 |
| 20260507041837 | 76 | 236 | 0.0 | 0.0 | 0.00 | 0.00 | 0.00 | 27 | 1013.4 |
| 20260507041722 | 76 | 236 | 0.0 | 0.0 | 0.00 | 0.00 | 0.00 | 27 | 1013.5 |
| 20260507041624 | 76 | 236 | 0.0 | 0.0 | 0.00 | 0.00 | 0.00 | 26 | 1013.5 |
| 20260507041535 | 76 | 236 | 0.0 | 0.0 | 0.00 | 0.00 | 0.00 | 26 | 1013.6 |
| 20260507041418 | 76 | 236 | 0.0 | 0.0 | 0.00 | 0.00 | 0.00 | 26 | 1013.5 |
| 20260507041317 | 76 | 236 | 0.0 | 0.0 | 0.00 | 0.00 | 0.00 | 26 | 1013.5 |
| 20260507041226 | 76 | 236 | 0.0 | 0.0 | 0.00 | 0.00 | 0.00 | 26 | 1013.5 |
| 20260507041132 | 76 | 236 | 0.0 | 0.0 | 0.00 | 0.00 | 0.00 | 26 | 1013.5 |
| 20260507041034 | 76 | 236 | 0.0 | 0.0 | 0.00 | 0.00 | 0.00 | 26 | 1013.4 |
| 20260507040915 | 76 | 236 | 0.0 | 0.0 | 0.00 | 0.00 | 0.00 | 26 | 1013.5 |
| 20260507040825 | 76 | 236 | 0.0 | 0.0 | 0.00 | 0.00 | 0.00 | 26 | 1013.3 |
| 20260507040747 | 76 | 236 | 0.0 | 0.0 | 0.00 | 0.00 | 0.00 | 26 | 1013.4 |
| 20260507040636 | 76 | 236 | 0.0 | 0.0 | 0.00 | 0.00 | 0.00 | 26 | 1013.3 |
| 20260507040522 | 76 | 236 | 0.0 | 0.0 | 0.00 | 0.00 | 0.00 | 25 | 1013.3 |
| 20260507040445 | 76 | 236 | 0.0 | 0.0 | 0.00 | 0.00 | 0.00 | 25 | 1013.3 |
| 20260507040331 | 77 | 236 | 0.0 | 0.0 | 0.00 | 0.00 | 0.00 | 25 | 1013.2 |
| 20260507040302 | 77 | 236 | 0.0 | 0.0 | 0.00 | 0.00 | 0.00 | 25 | 1013.2 |
| 20260507040121 | 77 | 236 | 0.0 | 0.0 | 0.00 | 0.00 | 0.00 | 25 | 1013.2 |
| 20260507040042 | 77 | 236 | 0.0 | 0.0 | 0.00 | 0.00 | 0.00 | 25 | 1013.2 |
| 20260507035932 | 77 | 236 | 0.0 | 0.0 | 0.00 | 0.00 | 0.00 | 25 | 1013.2 |
| 20260507035834 | 77 | 236 | 0.0 | 0.0 | 0.00 | 0.00 | 0.00 | 25 | 1013.2 |
| 20260507035721 | 77 | 236 | 0.0 | 0.0 | 0.00 | 0.00 | 0.00 | 25 | 1013.1 |
| 20260507035651 | 77 | 236 | 0.0 | 0.0 | 0.00 | 0.00 | 0.00 | 25 | 1013.1 |
| 20260507035538 | 77 | 236 | 0.0 | 0.0 | 0.00 | 0.00 | 0.00 | 25 | 1013.1 |
| 20260507035419 | 77 | 236 | 0.0 | 0.0 | 0.00 | 0.00 | 0.00 | 25 | 1013.1 |
| 20260507035322 | 77 | 236 | 0.0 | 0.0 | 0.00 | 0.00 | 0.00 | 25 | 1013.1 |
| 20260507035225 | 77 | 236 | 0.0 | 0.0 | 0.00 | 0.00 | 0.00 | 25 | 1013.1 |
| 20260507035137 | 77 | 236 | 0.0 | 0.0 | 0.00 | 0.00 | 0.00 | 25 | 1013.2 |
| 20260507035018 | 77 | 236 | 0.0 | 0.0 | 0.00 | 0.00 | 0.00 | 25 | 1013.1 |
| 20260507034921 | 78 | 236 | 0.0 | 0.0 | 0.00 | 0.00 | 0.00 | 24 | 1013.2 |
| 20260507034851 | 78 | 236 | 0.0 | 0.0 | 0.00 | 0.00 | 0.00 | 24 | 1013.2 |
| 20260507034731 | 78 | 236 | 0.0 | 0.0 | 0.00 | 0.00 | 0.00 | 24 | 1013.2 |
| 20260507034641 | 78 | 236 | 0.0 | 0.0 | 0.00 | 0.00 | 0.00 | 24 | 1013.1 |
| 20260507034522 | 78 | 236 | 0.0 | 0.0 | 0.00 | 0.00 | 0.00 | 24 | 1013.1 |
| 20260507034451 | 78 | 236 | 0.0 | 0.0 | 0.00 | 0.00 | 0.00 | 24 | 1013.1 |
| 20260507034317 | 78 | 236 | 0.0 | 0.0 | 0.00 | 0.00 | 0.00 | 24 | 1013.0 |
| 20260507034219 | 78 | 236 | 0.0 | 0.0 | 0.00 | 0.00 | 0.00 | 24 | 1013.1 |
| 20260507034128 | 78 | 236 | 0.0 | 0.0 | 0.00 | 0.00 | 0.00 | 24 | 1013.0 |
| 20260507034031 | 78 | 236 | 0.0 | 0.0 | 0.00 | 0.00 | 0.00 | 24 | 1013.0 |
| 20260507033933 | 78 | 236 | 0.0 | 0.0 | 0.00 | 0.00 | 0.00 | 24 | 1013.0 |
| 20260507033819 | 78 | 236 | 0.0 | 0.0 | 0.00 | 0.00 | 0.00 | 24 | 1013.0 |
| 20260507033728 | 78 | 236 | 0.0 | 0.0 | 0.00 | 0.00 | 0.00 | 24 | 1013.0 |
| 20260507033631 | 78 | 236 | 0.0 | 0.0 | 0.00 | 0.00 | 0.00 | 24 | 1013.0 |
| 20260507033600 | 78 | 236 | 0.0 | 0.0 | 0.00 | 0.00 | 0.00 | 24 | 1013.0 |
| 20260507033421 | 78 | 236 | 0.0 | 0.0 | 0.00 | 0.00 | 0.00 | 24 | 1012.9 |
| 20260507033323 | 78 | 236 | 0.0 | 0.0 | 0.00 | 0.00 | 0.00 | 24 | 1012.9 |
| 20260507033252 | 78 | 236 | 0.0 | 0.0 | 0.00 | 0.00 | 0.00 | 24 | 1012.8 |
| 20260507033116 | 78 | 236 | 0.0 | 0.0 | 0.00 | 0.00 | 0.00 | 23 | 1012.8 |
| 20260507033044 | 79 | 236 | 0.0 | 0.0 | 0.00 | 0.00 | 0.00 | 24 | 1012.9 |
| 20260507032925 | 79 | 236 | 0.0 | 0.0 | 0.00 | 0.00 | 0.00 | 23 | 1012.9 |
| 20260507032825 | 78 | 236 | 0.0 | 0.0 | 0.00 | 0.00 | 0.00 | 23 | 1012.9 |
| 20260507032735 | 79 | 236 | 0.0 | 0.0 | 0.00 | 0.00 | 0.00 | 23 | 1012.9 |
| 20260507032617 | 79 | 236 | 0.0 | 0.0 | 0.00 | 0.00 | 0.00 | 23 | 1012.9 |
| 20260507032539 | 79 | 236 | 0.0 | 0.0 | 0.00 | 0.00 | 0.00 | 23 | 1012.8 |
| 20260507032431 | 79 | 236 | 0.0 | 0.0 | 0.00 | 0.00 | 0.00 | 24 | 1012.9 |
| 20260507032334 | 79 | 236 | 0.0 | 0.0 | 0.00 | 0.00 | 0.00 | 23 | 1012.8 |
| 20260507032216 | 79 | 236 | 0.0 | 0.0 | 0.00 | 0.00 | 0.00 | 23 | 1012.8 |
| 20260507032146 | 79 | 236 | 0.0 | 0.0 | 0.00 | 0.00 | 0.00 | 23 | 1012.8 |
| 20260507032027 | 79 | 236 | 0.0 | 0.0 | 0.00 | 0.00 | 0.00 | 23 | 1012.8 |
| 20260507031956 | 79 | 236 | 0.0 | 0.0 | 0.00 | 0.00 | 0.00 | 23 | 1012.8 |
| 20260507031819 | 79 | 236 | 0.0 | 0.0 | 0.00 | 0.00 | 0.00 | 23 | 1012.7 |
| 20260507031720 | 79 | 236 | 0.0 | 0.0 | 0.00 | 0.00 | 0.00 | 23 | 1012.7 |
| 20260507031630 | 79 | 236 | 0.0 | 0.0 | 0.00 | 0.00 | 0.00 | 23 | 1012.7 |
| 20260507031552 | 79 | 236 | 0.0 | 0.0 | 0.00 | 0.00 | 0.00 | 23 | 1012.6 |
| 20260507031438 | 79 | 236 | 0.0 | 0.0 | 0.00 | 0.00 | 0.00 | 23 | 1012.7 |
| 20260507031320 | 79 | 236 | 0.0 | 0.0 | 0.00 | 0.00 | 0.00 | 23 | 1012.6 |
| 20260507031221 | 79 | 236 | 0.0 | 0.0 | 0.00 | 0.00 | 0.00 | 23 | 1012.6 |
| 20260507031128 | 79 | 236 | 0.0 | 0.0 | 0.00 | 0.00 | 0.00 | 23 | 1012.6 |
| 20260507031035 | 79 | 236 | 0.0 | 0.0 | 0.00 | 0.00 | 0.00 | 23 | 1012.6 |
| 20260507030917 | 79 | 236 | 0.0 | 0.0 | 0.00 | 0.00 | 0.00 | 23 | 1012.6 |
| 20260507030825 | 79 | 236 | 0.0 | 0.0 | 0.00 | 0.00 | 0.00 | 23 | 1012.6 |
| 20260507030747 | 79 | 236 | 0.0 | 0.0 | 0.00 | 0.00 | 0.00 | 23 | 1012.5 |
| 20260507030635 | 79 | 236 | 0.0 | 0.0 | 0.00 | 0.00 | 0.00 | 23 | 1012.4 |
| 20260507030520 | 79 | 236 | 0.0 | 0.0 | 0.00 | 0.00 | 0.00 | 23 | 1012.5 |
| 20260507030423 | 79 | 236 | 0.0 | 0.0 | 0.00 | 0.00 | 0.00 | 23 | 1012.4 |
| 20260507030353 | 79 | 236 | 0.0 | 0.0 | 0.00 | 0.00 | 0.00 | 23 | 1012.4 |
| 20260507030232 | 79 | 236 | 0.0 | 0.0 | 0.00 | 0.00 | 0.00 | 23 | 1012.4 |
| 20260507030142 | 79 | 236 | 0.0 | 0.0 | 0.00 | 0.00 | 0.00 | 23 | 1012.4 |
| 20260507030055 | 79 | 236 | 0.0 | 0.0 | 0.00 | 0.00 | 0.00 | 23 | 1012.4 |
| 20260507025952 | 80 | 236 | 0.0 | 0.0 | 0.00 | 0.00 | 0.00 | 22 | 1012.4 |
| 20260507025901 | 80 | 236 | 0.0 | 0.0 | 0.00 | 0.00 | 0.00 | 22 | 1012.4 |
| 20260507025742 | 80 | 236 | 0.0 | 0.0 | 0.00 | 0.00 | 0.00 | 22 | 1012.4 |
| 20260507025654 | 80 | 236 | 0.0 | 0.0 | 0.00 | 0.00 | 0.00 | 22 | 1012.3 |
| 20260507025535 | 80 | 236 | 0.0 | 0.0 | 0.00 | 0.00 | 0.00 | 22 | 1012.4 |
| 20260507025416 | 80 | 236 | 0.0 | 0.0 | 0.00 | 0.00 | 0.00 | 22 | 1012.3 |
| 20260507025325 | 80 | 236 | 0.0 | 0.0 | 0.00 | 0.00 | 0.00 | 22 | 1012.3 |
| 20260507025226 | 80 | 236 | 0.0 | 0.0 | 0.00 | 0.00 | 0.00 | 22 | 1012.3 |
| 20260507025127 | 80 | 236 | 0.0 | 0.0 | 0.00 | 0.00 | 0.00 | 22 | 1012.3 |
| 20260507025041 | 80 | 236 | 0.0 | 0.0 | 0.00 | 0.00 | 0.00 | 22 | 1012.3 |
| 20260507024922 | 80 | 236 | 0.0 | 0.0 | 0.00 | 0.00 | 0.00 | 22 | 1012.4 |
| 20260507024844 | 80 | 236 | 0.0 | 0.0 | 0.00 | 0.00 | 0.00 | 22 | 1012.4 |
| 20260507024732 | 80 | 236 | 0.0 | 0.0 | 0.00 | 0.00 | 0.00 | 22 | 1012.4 |
| 20260507024635 | 80 | 236 | 0.0 | 0.0 | 0.00 | 0.00 | 0.00 | 22 | 1012.3 |
| 20260507024535 | 80 | 236 | 0.0 | 0.0 | 0.00 | 0.00 | 0.00 | 22 | 1012.3 |
| 20260507024421 | 80 | 236 | 0.0 | 0.0 | 0.00 | 0.00 | 0.00 | 22 | 1012.3 |
| 20260507024331 | 80 | 236 | 0.0 | 0.0 | 0.00 | 0.00 | 0.00 | 21 | 1012.2 |
| 20260507024233 | 80 | 236 | 0.0 | 0.0 | 0.00 | 0.00 | 0.00 | 22 | 1012.2 |
| 20260507024135 | 80 | 236 | 0.0 | 0.0 | 0.00 | 0.00 | 0.00 | 21 | 1012.2 |
| 20260507024016 | 80 | 236 | 0.0 | 0.0 | 0.00 | 0.00 | 0.00 | 21 | 1012.2 |
| 20260507023924 | 80 | 236 | 0.0 | 0.0 | 0.00 | 0.00 | 0.00 | 22 | 1012.2 |
| 20260507023827 | 80 | 236 | 0.0 | 0.0 | 0.00 | 0.00 | 0.00 | 21 | 1012.2 |
| 20260507023719 | 81 | 236 | 0.0 | 0.0 | 0.00 | 0.00 | 0.00 | 21 | 1012.2 |
| 20260507023642 | 81 | 236 | 0.0 | 0.0 | 0.00 | 0.00 | 0.00 | 21 | 1012.2 |
| 20260507023529 | 81 | 236 | 0.0 | 0.0 | 0.00 | 0.00 | 0.00 | 21 | 1012.2 |
| 20260507023452 | 81 | 236 | 0.0 | 0.0 | 0.00 | 0.00 | 0.00 | 21 | 1012.2 |
| 20260507023339 | 81 | 236 | 0.0 | 0.0 | 0.00 | 0.00 | 0.00 | 21 | 1012.2 |
| 20260507023221 | 81 | 236 | 0.0 | 0.0 | 0.00 | 0.00 | 0.00 | 21 | 1012.3 |
| 20260507023127 | 81 | 236 | 0.0 | 0.0 | 0.00 | 0.00 | 0.00 | 21 | 1012.2 |
| 20260507023056 | 81 | 236 | 0.0 | 0.0 | 0.00 | 0.00 | 0.00 | 21 | 1012.3 |
| 20260507022916 | 81 | 236 | 0.0 | 0.0 | 0.00 | 0.00 | 0.00 | 21 | 1012.2 |
| 20260507022819 | 81 | 236 | 0.0 | 0.0 | 0.00 | 0.00 | 0.00 | 21 | 1012.3 |
| 20260507022720 | 81 | 236 | 0.0 | 0.0 | 0.00 | 0.00 | 0.00 | 21 | 1012.2 |
| 20260507022630 | 81 | 236 | 0.0 | 0.0 | 0.00 | 0.00 | 0.00 | 21 | 1012.2 |
| 20260507022517 | 81 | 236 | 0.0 | 0.0 | 0.00 | 0.00 | 0.00 | 21 | 1012.2 |
| 20260507022418 | 81 | 236 | 0.0 | 0.0 | 0.00 | 0.00 | 0.00 | 21 | 1012.2 |
| 20260507022327 | 81 | 236 | 0.0 | 0.0 | 0.00 | 0.00 | 0.00 | 21 | 1012.1 |
| 20260507022251 | 81 | 236 | 0.0 | 0.0 | 0.00 | 0.00 | 0.00 | 21 | 1012.1 |
| 20260507022220 | 81 | 236 | 0.0 | 0.0 | 0.00 | 0.00 | 0.00 | 21 | 1012.1 |
| 20260507021920 | 81 | 236 | 0.0 | 0.0 | 0.00 | 0.00 | 0.00 | 21 | 1012.2 |
| 20260507021822 | 81 | 236 | 0.0 | 0.0 | 0.00 | 0.00 | 0.00 | 21 | 1012.2 |
| 20260507021734 | 81 | 236 | 0.0 | 0.0 | 0.00 | 0.00 | 0.00 | 21 | 1012.2 |
| 20260507021633 | 82 | 236 | 0.0 | 0.0 | 0.00 | 0.00 | 0.00 | 21 | 1012.1 |
| 20260507021543 | 82 | 236 | 0.0 | 0.0 | 0.00 | 0.00 | 0.00 | 21 | 1012.1 |
| 20260507021425 | 82 | 236 | 0.0 | 0.0 | 0.00 | 0.00 | 0.00 | 21 | 1012.2 |
| 20260507021327 | 82 | 236 | 0.0 | 0.0 | 0.00 | 0.00 | 0.00 | 21 | 1012.0 |
| 20260507021234 | 82 | 236 | 0.0 | 0.0 | 0.00 | 0.00 | 0.00 | 21 | 1012.0 |
| 20260507021117 | 82 | 236 | 0.0 | 0.0 | 0.00 | 0.00 | 0.00 | 21 | 1012.0 |
| 20260507021022 | 82 | 236 | 0.0 | 0.0 | 0.00 | 0.00 | 0.00 | 21 | 1012.0 |
| 20260507020951 | 82 | 236 | 0.0 | 4.0 | 0.00 | 0.00 | 0.00 | 21 | 1012.0 |
| 20260507020833 | 82 | 236 | 0.0 | 4.0 | 0.00 | 0.00 | 0.00 | 21 | 1012.0 |
| 20260507020715 | 82 | 236 | 0.0 | 4.0 | 0.00 | 0.00 | 0.00 | 21 | 1012.0 |
| 20260507020624 | 82 | 236 | 0.0 | 4.0 | 0.00 | 0.00 | 0.00 | 21 | 1011.9 |
| 20260507020524 | 82 | 236 | 0.0 | 4.0 | 0.00 | 0.00 | 0.00 | 21 | 1011.9 |
| 20260507020430 | 82 | 236 | 0.0 | 4.0 | 0.00 | 0.00 | 0.00 | 20 | 1011.9 |
| 20260507020337 | 82 | 236 | 0.0 | 4.0 | 0.00 | 0.00 | 0.00 | 21 | 1012.0 |
| 20260507020219 | 82 | 236 | 0.0 | 4.0 | 0.00 | 0.00 | 0.00 | 20 | 1011.9 |
| 20260507020121 | 82 | 233 | 0.0 | 4.0 | 0.00 | 0.00 | 0.00 | 20 | 1012.0 |
| 20260507020041 | 82 | 233 | 0.0 | 4.0 | 0.00 | 0.00 | 0.00 | 20 | 1012.0 |
| 20260507015929 | 82 | 233 | 1.0 | 4.0 | 0.00 | 0.00 | 0.00 | 20 | 1012.0 |
| 20260507015837 | 82 | 233 | 1.0 | 4.0 | 0.00 | 0.00 | 0.00 | 20 | 1012.0 |
| 20260507015723 | 82 | 233 | 0.0 | 3.0 | 0.00 | 0.00 | 0.00 | 21 | 1012.0 |
| 20260507015624 | 82 | 233 | 0.0 | 3.0 | 0.00 | 0.00 | 0.00 | 21 | 1012.0 |
| 20260507015525 | 82 | 233 | 0.0 | 3.0 | 0.00 | 0.00 | 0.00 | 21 | 1012.0 |
| 20260507015433 | 82 | 231 | 0.0 | 2.0 | 0.00 | 0.00 | 0.00 | 21 | 1012.1 |
| 20260507015353 | 82 | 231 | 0.0 | 2.0 | 0.00 | 0.00 | 0.00 | 21 | 1011.9 |
| 20260507015242 | 82 | 231 | 0.0 | 2.0 | 0.00 | 0.00 | 0.00 | 20 | 1011.9 |
| 20260507015128 | 82 | 231 | 0.0 | 2.0 | 0.00 | 0.00 | 0.00 | 20 | 1012.0 |
| 20260507015031 | 82 | 231 | 0.0 | 2.0 | 0.00 | 0.00 | 0.00 | 20 | 1012.1 |
| 20260507014931 | 82 | 184 | 0.0 | 2.0 | 0.00 | 0.00 | 0.00 | 21 | 1012.0 |
| 20260507014842 | 82 | 183 | 0.0 | 2.0 | 0.00 | 0.00 | 0.00 | 20 | 1012.0 |
| 20260507014721 | 82 | 182 | 0.0 | 2.0 | 0.00 | 0.00 | 0.00 | 20 | 1012.1 |
| 20260507014622 | 83 | 245 | 0.0 | 2.0 | 0.00 | 0.00 | 0.00 | 20 | 1012.0 |
| 20260507014516 | 83 | 245 | 0.0 | 2.0 | 0.00 | 0.00 | 0.00 | 21 | 1012.0 |
| 20260507014418 | 83 | 245 | 0.0 | 2.0 | 0.00 | 0.00 | 0.00 | 20 | 1012.0 |
| 20260507014320 | 83 | 245 | 0.0 | 1.0 | 0.00 | 0.00 | 0.00 | 20 | 1012.0 |
| 20260507014229 | 83 | 245 | 0.0 | 1.0 | 0.00 | 0.00 | 0.00 | 20 | 1012.0 |
| 20260507014130 | 83 | 245 | 0.0 | 1.0 | 0.00 | 0.00 | 0.00 | 20 | 1011.9 |
| 20260507014039 | 83 | 245 | 0.0 | 3.0 | 0.00 | 0.00 | 0.00 | 20 | 1011.9 |
| 20260507013926 | 83 | 245 | 0.0 | 3.0 | 0.00 | 0.00 | 0.00 | 20 | 1011.9 |
| 20260507013828 | 83 | 245 | 0.0 | 3.0 | 0.00 | 0.00 | 0.00 | 20 | 1011.9 |
| 20260507013729 | 83 | 245 | 0.0 | 3.0 | 0.00 | 0.00 | 0.00 | 20 | 1011.9 |
| 20260507013617 | 83 | 245 | 0.0 | 3.0 | 0.00 | 0.00 | 0.00 | 20 | 1011.9 |
| 20260507013520 | 83 | 245 | 0.0 | 3.0 | 0.00 | 0.00 | 0.00 | 20 | 1011.9 |
| 20260507013422 | 83 | 245 | 0.0 | 3.0 | 0.00 | 0.00 | 0.00 | 20 | 1011.9 |
| 20260507013330 | 83 | 245 | 0.0 | 3.0 | 0.00 | 0.00 | 0.00 | 20 | 1011.9 |
| 20260507013217 | 83 | 245 | 0.0 | 2.0 | 0.00 | 0.00 | 0.00 | 20 | 1011.9 |
| 20260507013119 | 83 | 245 | 0.0 | 2.0 | 0.00 | 0.00 | 0.00 | 20 | 1011.9 |
| 20260507013019 | 83 | 245 | 0.0 | 2.0 | 0.00 | 0.00 | 0.00 | 20 | 1011.9 |
| 20260507012928 | 83 | 245 | 0.0 | 2.0 | 0.00 | 0.00 | 0.00 | 20 | 1011.9 |
| 20260507012836 | 83 | 245 | 0.0 | 2.0 | 0.00 | 0.00 | 0.00 | 20 | 1011.9 |
| 20260507012717 | 83 | 245 | 0.0 | 2.0 | 0.00 | 0.00 | 0.00 | 20 | 1011.9 |
| 20260507012624 | 83 | 245 | 0.0 | 0.0 | 0.00 | 0.00 | 0.00 | 20 | 1011.9 |
| 20260507012526 | 83 | 245 | 0.0 | 0.0 | 0.00 | 0.00 | 0.00 | 20 | 1011.9 |
| 20260507012434 | 83 | 245 | 0.0 | 0.0 | 0.00 | 0.00 | 0.00 | 20 | 1011.9 |
| 20260507012336 | 84 | 245 | 0.0 | 3.0 | 0.00 | 0.00 | 0.00 | 20 | 1011.9 |
| 20260507012307 | 84 | 245 | 0.0 | 5.0 | 0.00 | 0.00 | 0.00 | 19 | 1011.9 |
| 20260507012045 | 84 | 245 | 0.0 | 5.0 | 0.00 | 0.00 | 0.00 | 19 | 1012.0 |
| 20260507011833 | 84 | 245 | 0.0 | 5.0 | 0.00 | 0.00 | 0.00 | 19 | 1012.0 |
| 20260507011715 | 84 | 244 | 0.0 | 5.0 | 0.00 | 0.00 | 0.00 | 19 | 1012.0 |
| 20260507011624 | 84 | 244 | 0.0 | 5.0 | 0.00 | 0.00 | 0.00 | 19 | 1012.1 |
| 20260507011526 | 84 | 242 | 1.0 | 5.0 | 0.00 | 0.00 | 0.00 | 20 | 1012.0 |
| 20260507011428 | 84 | 240 | 1.0 | 5.0 | 0.00 | 0.00 | 0.00 | 19 | 1012.0 |
| 20260507011341 | 84 | 240 | 1.0 | 5.0 | 0.00 | 0.00 | 0.00 | 20 | 1012.0 |
| 20260507011222 | 84 | 240 | 2.0 | 5.0 | 0.00 | 0.00 | 0.00 | 20 | 1011.9 |
| 20260507011124 | 84 | 240 | 2.0 | 5.0 | 0.00 | 0.00 | 0.00 | 19 | 1011.9 |
| 20260507011026 | 84 | 238 | 1.0 | 5.0 | 0.00 | 0.00 | 0.00 | 20 | 1011.9 |
| 20260507010935 | 84 | 238 | 0.0 | 5.0 | 0.00 | 0.00 | 0.00 | 20 | 1011.9 |
| 20260507010821 | 84 | 238 | 1.0 | 5.0 | 0.00 | 0.00 | 0.00 | 20 | 1011.9 |
| 20260507010723 | 84 | 238 | 1.0 | 5.0 | 0.00 | 0.00 | 0.00 | 20 | 1011.9 |
| 20260507010631 | 84 | 238 | 1.0 | 5.0 | 0.00 | 0.00 | 0.00 | 21 | 1012.0 |
| 20260507010531 | 84 | 268 | 0.0 | 4.0 | 0.00 | 0.00 | 0.00 | 21 | 1011.9 |
| 20260507010441 | 84 | 268 | 0.0 | 4.0 | 0.00 | 0.00 | 0.00 | 23 | 1011.9 |
| 20260507010322 | 84 | 268 | 0.0 | 5.0 | 0.00 | 0.00 | 0.00 | 25 | 1011.9 |
| 20260507010224 | 84 | 268 | 0.0 | 5.0 | 0.00 | 0.00 | 0.00 | 24 | 1011.9 |
| 20260507010131 | 84 | 268 | 0.0 | 5.0 | 0.00 | 0.00 | 0.00 | 21 | 1011.9 |
| 20260507010032 | 84 | 268 | 1.0 | 5.0 | 0.00 | 0.00 | 0.00 | 19 | 1011.9 |
| 20260507005943 | 84 | 268 | 1.0 | 5.0 | 0.00 | 0.00 | 0.00 | 20 | 1012.0 |
| 20260507005850 | 84 | 268 | 1.0 | 5.0 | 0.00 | 0.00 | 0.00 | 19 | 1012.0 |
| 20260507005730 | 84 | 268 | 2.0 | 5.0 | 0.00 | 0.00 | 0.00 | 20 | 1012.0 |
| 20260507005641 | 84 | 268 | 2.0 | 5.0 | 0.00 | 0.00 | 0.00 | 19 | 1012.0 |
| 20260507005527 | 84 | 266 | 1.0 | 5.0 | 0.00 | 0.00 | 0.00 | 20 | 1012.0 |
| 20260507005450 | 84 | 264 | 0.0 | 1.0 | 0.00 | 0.00 | 0.00 | 19 | 1012.0 |
| 20260507005338 | 84 | 264 | 0.0 | 1.0 | 0.00 | 0.00 | 0.00 | 19 | 1012.0 |
| 20260507005218 | 85 | 264 | 0.0 | 1.0 | 0.00 | 0.00 | 0.00 | 19 | 1012.0 |
| 20260507005147 | 85 | 264 | 0.0 | 1.0 | 0.00 | 0.00 | 0.00 | 19 | 1012.0 |
| 20260507005027 | 85 | 264 | 0.0 | 1.0 | 0.00 | 0.00 | 0.00 | 19 | 1012.0 |
| 20260507004936 | 85 | 264 | 0.0 | 1.0 | 0.00 | 0.00 | 0.00 | 19 | 1012.0 |
| 20260507004821 | 85 | 261 | 0.0 | 0.0 | 0.00 | 0.00 | 0.00 | 19 | 1012.0 |
| 20260507004723 | 85 | 274 | 0.0 | 0.0 | 0.00 | 0.00 | 0.00 | 19 | 1012.1 |
| 20260507004626 | 85 | 274 | 0.0 | 0.0 | 0.00 | 0.00 | 0.00 | 19 | 1011.9 |
| 20260507004536 | 85 | 274 | 0.0 | 0.0 | 0.00 | 0.00 | 0.00 | 22 | 1011.9 |
| 20260507004418 | 85 | 274 | 0.0 | 0.0 | 0.00 | 0.00 | 0.00 | 21 | 1012.0 |
| 20260507004319 | 85 | 274 | 0.0 | 0.0 | 0.00 | 0.00 | 0.00 | 22 | 1012.0 |
| 20260507004225 | 85 | 274 | 0.0 | 0.0 | 0.00 | 0.00 | 0.00 | 21 | 1011.9 |
| 20260507004134 | 85 | 274 | 0.0 | 0.0 | 0.00 | 0.00 | 0.00 | 21 | 1012.0 |
| 20260507004016 | 86 | 274 | 0.0 | 0.0 | 0.00 | 0.00 | 0.00 | 20 | 1012.0 |
| 20260507003918 | 86 | 274 | 0.0 | 0.0 | 0.00 | 0.00 | 0.00 | 20 | 1012.0 |
| 20260507003820 | 86 | 274 | 0.0 | 0.0 | 0.00 | 0.00 | 0.00 | 20 | 1012.0 |
| 20260507003730 | 85 | 274 | 0.0 | 0.0 | 0.00 | 0.00 | 0.00 | 20 | 1012.0 |
| 20260507003631 | 85 | 274 | 0.0 | 0.0 | 0.00 | 0.00 | 0.00 | 20 | 1011.9 |
| 20260507003544 | 85 | 274 | 0.0 | 0.0 | 0.00 | 0.00 | 0.00 | 20 | 1011.9 |
| 20260507003425 | 85 | 274 | 0.0 | 0.0 | 0.00 | 0.00 | 0.00 | 19 | 1011.9 |
| 20260507003332 | 85 | 274 | 0.0 | 0.0 | 0.00 | 0.00 | 0.00 | 19 | 1011.8 |
| 20260507003233 | 85 | 274 | 0.0 | 0.0 | 0.00 | 0.00 | 0.00 | 20 | 1011.9 |
| 20260507003143 | 85 | 274 | 0.0 | 0.0 | 0.00 | 0.00 | 0.00 | 19 | 1011.9 |
| 20260507003024 | 85 | 274 | 0.0 | 0.0 | 0.00 | 0.00 | 0.00 | 19 | 1011.9 |
| 20260507002953 | 85 | 295 | 0.0 | 0.0 | 0.00 | 0.00 | 0.00 | 20 | 1011.9 |
| 20260507002818 | 85 | 297 | 0.0 | 2.0 | 0.00 | 0.00 | 0.00 | 20 | 1012.0 |
| 20260507002720 | 84 | 247 | 0.0 | 2.0 | 0.00 | 0.00 | 0.00 | 19 | 1012.0 |
| 20260507002620 | 84 | 247 | 0.0 | 2.0 | 0.00 | 0.00 | 0.00 | 22 | 1012.0 |
| 20260507002529 | 84 | 247 | 0.0 | 2.0 | 0.00 | 0.00 | 0.00 | 22 | 1011.9 |
| 20260507002432 | 84 | 247 | 0.0 | 2.0 | 0.00 | 0.00 | 0.00 | 20 | 1011.9 |
| 20260507002320 | 84 | 247 | 0.0 | 2.0 | 0.00 | 0.00 | 0.00 | 20 | 1011.9 |
| 20260507002227 | 84 | 247 | 0.0 | 2.0 | 0.00 | 0.00 | 0.00 | 19 | 1011.9 |
| 20260507002155 | 84 | 247 | 0.0 | 2.0 | 0.00 | 0.00 | 0.00 | 19 | 1011.9 |
| 20260507002016 | 84 | 247 | 0.0 | 2.0 | 0.00 | 0.00 | 0.00 | 19 | 1011.9 |
| 20260507001938 | 85 | 247 | 0.0 | 0.0 | 0.00 | 0.00 | 0.00 | 19 | 1011.9 |
| 20260507001824 | 85 | 247 | 0.0 | 0.0 | 0.00 | 0.00 | 0.00 | 20 | 1011.9 |
| 20260507001726 | 85 | 247 | 0.0 | 0.0 | 0.00 | 0.00 | 0.00 | 20 | 1011.9 |
| 20260507001627 | 85 | 248 | 0.0 | 0.0 | 0.00 | 0.00 | 0.00 | 20 | 1012.0 |
| 20260507001542 | 85 | 248 | 0.0 | 0.0 | 0.00 | 0.00 | 0.00 | 19 | 1012.0 |
| 20260507001443 | 85 | 248 | 0.0 | 0.0 | 0.00 | 0.00 | 0.00 | 20 | 1012.0 |
| 20260507001323 | 85 | 248 | 0.0 | 0.0 | 0.00 | 0.00 | 0.00 | 20 | 1012.0 |
| 20260507001251 | 85 | 248 | 0.0 | 0.0 | 0.00 | 0.00 | 0.00 | 20 | 1012.0 |
| 20260507001138 | 84 | 248 | 0.0 | 0.0 | 0.00 | 0.00 | 0.00 | 20 | 1012.0 |
| 20260507001019 | 85 | 248 | 0.0 | 0.0 | 0.00 | 0.00 | 0.00 | 19 | 1012.1 |
| 20260507000921 | 85 | 248 | 0.0 | 0.0 | 0.00 | 0.00 | 0.00 | 19 | 1012.0 |
| 20260507000827 | 85 | 248 | 0.0 | 1.0 | 0.00 | 0.00 | 0.00 | 20 | 1012.1 |
| 20260507000736 | 85 | 248 | 0.0 | 7.0 | 0.00 | 0.00 | 0.00 | 19 | 1012.1 |
| 20260507000636 | 85 | 248 | 0.0 | 7.0 | 0.00 | 0.00 | 0.00 | 20 | 1012.1 |
| 20260507000517 | 85 | 248 | 0.0 | 7.0 | 0.00 | 0.00 | 0.00 | 20 | 1012.1 |
| 20260507000427 | 85 | 248 | 0.0 | 7.0 | 0.00 | 0.00 | 0.00 | 20 | 1012.1 |
| 20260507000329 | 85 | 248 | 0.0 | 7.0 | 0.00 | 0.00 | 0.00 | 19 | 1012.1 |
| 20260507000258 | 85 | 248 | 0.0 | 7.0 | 0.00 | 0.00 | 0.00 | 20 | 1012.1 |
| 20260507000141 | 85 | 243 | 0.0 | 7.0 | 0.00 | 0.00 | 0.00 | 20 | 1012.0 |
| 20260507000042 | 85 | 243 | 1.0 | 7.0 | 0.00 | 0.00 | 0.00 | 19 | 1012.0 |
| 20260506235932 | 85 | 243 | 1.0 | 7.0 | 0.00 | 0.00 | 0.00 | 20 | 1011.9 |
| 20260506235834 | 85 | 250 | 0.0 | 4.0 | 0.00 | 0.00 | 0.00 | 20 | 1011.9 |
| 20260506235716 | 85 | 261 | 0.0 | 6.0 | 0.00 | 0.00 | 0.00 | 20 | 1011.9 |
| 20260506235646 | 85 | 261 | 0.0 | 6.0 | 0.00 | 0.00 | 0.00 | 20 | 1011.9 |
| 20260506235537 | 85 | 261 | 0.0 | 6.0 | 0.00 | 0.00 | 0.00 | 20 | 1011.9 |
| 20260506235438 | 85 | 261 | 0.0 | 6.0 | 0.00 | 0.00 | 0.00 | 20 | 1011.9 |
| 20260506235326 | 85 | 261 | 0.0 | 6.0 | 0.00 | 0.00 | 0.00 | 20 | 1012.0 |
| 20260506235227 | 85 | 261 | 1.0 | 6.0 | 0.00 | 0.00 | 0.00 | 20 | 1012.0 |
| 20260506235157 | 85 | 258 | 2.0 | 6.0 | 0.00 | 0.00 | 0.00 | 20 | 1011.9 |
| 20260506235016 | 85 | 240 | 2.0 | 6.0 | 0.00 | 0.00 | 0.00 | 19 | 1011.9 |
| 20260506234945 | 85 | 239 | 2.0 | 6.0 | 0.00 | 0.00 | 0.00 | 20 | 1011.9 |
| 20260506234825 | 85 | 248 | 0.0 | 6.0 | 0.00 | 0.00 | 0.00 | 20 | 1012.0 |
| 20260506234731 | 85 | 252 | 1.0 | 6.0 | 0.00 | 0.00 | 0.00 | 19 | 1012.0 |
| 20260506234641 | 85 | 252 | 1.0 | 6.0 | 0.00 | 0.00 | 0.00 | 20 | 1012.0 |
| 20260506234523 | 86 | 251 | 0.0 | 6.0 | 0.00 | 0.00 | 0.00 | 20 | 1012.0 |
| 20260506234426 | 86 | 253 | 2.0 | 6.0 | 0.00 | 0.00 | 0.00 | 19 | 1012.1 |
| 20260506234328 | 86 | 248 | 2.0 | 6.0 | 0.00 | 0.00 | 0.00 | 19 | 1012.0 |
| 20260506234238 | 86 | 214 | 1.0 | 5.0 | 0.00 | 0.00 | 0.00 | 20 | 1012.0 |
| 20260506234123 | 86 | 278 | 0.0 | 1.0 | 0.00 | 0.00 | 0.00 | 20 | 1012.0 |
| 20260506234024 | 86 | 278 | 0.0 | 1.0 | 0.00 | 0.00 | 0.00 | 20 | 1012.0 |
| 20260506233933 | 86 | 278 | 0.0 | 1.0 | 0.00 | 0.00 | 0.00 | 20 | 1012.0 |
| 20260506233834 | 86 | 278 | 0.0 | 0.0 | 0.00 | 0.00 | 0.00 | 21 | 1012.0 |
| 20260506233717 | 86 | 278 | 0.0 | 0.0 | 0.00 | 0.00 | 0.00 | 21 | 1012.1 |
| 20260506233646 | 85 | 278 | 0.0 | 0.0 | 0.00 | 0.00 | 0.00 | 22 | 1012.1 |
| 20260506233552 | 85 | 278 | 0.0 | 0.0 | 0.00 | 0.00 | 0.00 | 21 | 1012.2 |
| 20260506233417 | 85 | 278 | 0.0 | 1.0 | 0.00 | 0.00 | 0.00 | 21 | 1012.2 |
| 20260506233319 | 85 | 278 | 0.0 | 1.0 | 0.00 | 0.00 | 0.00 | 21 | 1012.2 |
| 20260506233220 | 85 | 278 | 0.0 | 1.0 | 0.00 | 0.00 | 0.00 | 20 | 1012.2 |
| 20260506233130 | 85 | 278 | 0.0 | 2.0 | 0.00 | 0.00 | 0.00 | 20 | 1012.3 |
| 20260506233031 | 85 | 278 | 0.0 | 2.0 | 0.00 | 0.00 | 0.00 | 20 | 1012.3 |
| 20260506232940 | 85 | 278 | 0.0 | 2.0 | 0.00 | 0.00 | 0.00 | 19 | 1012.3 |
| 20260506232841 | 85 | 278 | 0.0 | 7.0 | 0.00 | 0.00 | 0.00 | 20 | 1012.3 |
| 20260506232734 | 85 | 280 | 0.0 | 7.0 | 0.00 | 0.00 | 0.00 | 21 | 1012.3 |
| 20260506232634 | 85 | 271 | 0.0 | 7.0 | 0.00 | 0.00 | 0.00 | 20 | 1012.2 |
| 20260506232515 | 85 | 289 | 0.0 | 7.0 | 0.00 | 0.00 | 0.00 | 20 | 1012.3 |
| 20260506232445 | 85 | 274 | 0.0 | 7.0 | 0.00 | 0.00 | 0.00 | 20 | 1012.3 |
| 20260506232324 | 85 | 250 | 0.0 | 7.0 | 0.00 | 0.00 | 0.00 | 20 | 1012.2 |
| 20260506232232 | 85 | 252 | 0.0 | 7.0 | 0.00 | 0.00 | 0.00 | 20 | 1012.1 |
| 20260506232134 | 85 | 224 | 1.0 | 7.0 | 0.00 | 0.00 | 0.00 | 20 | 1012.2 |
| 20260506232046 | 85 | 255 | 0.0 | 7.0 | 0.00 | 0.00 | 0.00 | 20 | 1012.2 |
| 20260506231946 | 85 | 241 | 0.0 | 5.0 | 0.00 | 0.00 | 0.00 | 20 | 1012.2 |
| 20260506231833 | 85 | 241 | 0.0 | 5.0 | 0.00 | 0.00 | 0.00 | 20 | 1012.2 |
| 20260506231735 | 85 | 245 | 1.0 | 7.0 | 0.00 | 0.00 | 0.00 | 19 | 1012.2 |
| 20260506231617 | 85 | 245 | 3.0 | 7.0 | 0.00 | 0.00 | 0.00 | 20 | 1012.3 |
| 20260506231527 | 85 | 245 | 1.0 | 7.0 | 0.00 | 0.00 | 0.00 | 20 | 1012.3 |
| 20260506231447 | 85 | 250 | 0.0 | 7.0 | 0.00 | 0.00 | 0.00 | 20 | 1012.3 |
| 20260506231338 | 85 | 251 | 0.0 | 7.0 | 0.00 | 0.00 | 0.00 | 20 | 1012.3 |
| 20260506231219 | 85 | 251 | 0.0 | 7.0 | 0.00 | 0.00 | 0.00 | 20 | 1012.3 |
| 20260506231121 | 85 | 251 | 1.0 | 7.0 | 0.00 | 0.00 | 0.00 | 20 | 1012.3 |
| 20260506231024 | 85 | 254 | 2.0 | 7.0 | 0.00 | 0.00 | 0.00 | 20 | 1012.3 |
| 20260506230933 | 85 | 203 | 2.0 | 7.0 | 0.00 | 0.00 | 0.00 | 20 | 1012.3 |
| 20260506230833 | 85 | 191 | 0.0 | 0.0 | 0.00 | 0.00 | 0.00 | 20 | 1012.3 |
| 20260506230759 | 85 | 189 | 0.0 | 0.0 | 0.00 | 0.00 | 0.00 | 20 | 1012.4 |
| 20260506230623 | 84 | 181 | 0.0 | 0.0 | 0.00 | 0.00 | 0.00 | 20 | 1012.4 |
| 20260506230525 | 84 | 181 | 0.0 | 3.0 | 0.00 | 0.00 | 0.00 | 20 | 1012.4 |
| 20260506230427 | 84 | 181 | 0.0 | 6.0 | 0.00 | 0.00 | 0.00 | 20 | 1012.4 |
| 20260506230335 | 84 | 181 | 0.0 | 6.0 | 0.00 | 0.00 | 0.00 | 20 | 1012.5 |
| 20260506230217 | 84 | 181 | 0.0 | 6.0 | 0.00 | 0.00 | 0.00 | 20 | 1012.5 |
| 20260506230121 | 85 | 181 | 0.0 | 6.0 | 0.00 | 0.00 | 0.00 | 22 | 1012.5 |
| 20260506230043 | 85 | 197 | 0.0 | 6.0 | 0.00 | 0.00 | 0.00 | 22 | 1012.5 |
| 20260506225950 | 85 | 197 | 0.0 | 6.0 | 0.00 | 0.00 | 0.00 | 20 | 1012.6 |
| 20260506225839 | 85 | 197 | 0.0 | 6.0 | 0.00 | 0.00 | 0.00 | 20 | 1012.6 |
| 20260506225719 | 85 | 194 | 2.0 | 6.0 | 0.00 | 0.00 | 0.00 | 21 | 1012.6 |
| 20260506225622 | 84 | 194 | 2.0 | 6.0 | 0.00 | 0.00 | 0.00 | 20 | 1012.6 |
| 20260506225529 | 85 | 200 | 1.0 | 6.0 | 0.00 | 0.00 | 0.00 | 20 | 1012.6 |
| 20260506225429 | 84 | 205 | 0.0 | 1.0 | 0.00 | 0.00 | 0.00 | 20 | 1012.7 |
| 20260506225322 | 84 | 186 | 0.0 | 1.0 | 0.00 | 0.00 | 0.00 | 20 | 1012.7 |
| 20260506225225 | 84 | 186 | 0.0 | 1.0 | 0.00 | 0.00 | 0.00 | 19 | 1012.6 |
| 20260506225127 | 85 | 176 | 0.0 | 1.0 | 0.00 | 0.00 | 0.00 | 20 | 1012.7 |
| 20260506225036 | 84 | 166 | 0.0 | 1.0 | 0.00 | 0.00 | 0.00 | 20 | 1012.6 |
| 20260506224919 | 84 | 155 | 0.0 | 0.0 | 0.00 | 0.00 | 0.00 | 20 | 1012.6 |
| 20260506224840 | 84 | 155 | 0.0 | 0.0 | 0.00 | 0.00 | 0.00 | 20 | 1012.6 |
| 20260506224731 | 85 | 155 | 0.0 | 1.0 | 0.00 | 0.00 | 0.00 | 19 | 1012.6 |
| 20260506224634 | 85 | 155 | 0.0 | 2.0 | 0.00 | 0.00 | 0.00 | 21 | 1012.5 |
| 20260506224535 | 85 | 155 | 0.0 | 2.0 | 0.00 | 0.00 | 0.00 | 21 | 1012.6 |
| 20260506224444 | 85 | 156 | 0.0 | 2.0 | 0.00 | 0.00 | 0.00 | 19 | 1012.5 |
| 20260506224325 | 85 | 177 | 0.0 | 2.0 | 0.00 | 0.00 | 0.00 | 19 | 1012.6 |
| 20260506224225 | 86 | 201 | 0.0 | 2.0 | 0.00 | 0.00 | 0.00 | 18 | 1012.6 |
| 20260506224140 | 86 | 201 | 0.0 | 2.0 | 0.00 | 0.00 | 0.00 | 19 | 1012.6 |
| 20260506224022 | 86 | 200 | 0.0 | 2.0 | 0.00 | 0.00 | 0.00 | 20 | 1012.6 |
| 20260506223924 | 86 | 281 | 0.0 | 2.0 | 0.00 | 0.00 | 0.00 | 19 | 1012.7 |
| 20260506223824 | 86 | 288 | 0.0 | 2.0 | 0.00 | 0.00 | 0.00 | 22 | 1012.6 |
| 20260506223752 | 85 | 288 | 0.0 | 1.0 | 0.00 | 0.00 | 0.00 | 20 | 1012.6 |
| 20260506223640 | 85 | 288 | 0.0 | 3.0 | 0.00 | 0.00 | 0.00 | 22 | 1012.6 |
| 20260506223526 | 85 | 288 | 0.0 | 4.0 | 0.00 | 0.00 | 0.00 | 21 | 1012.7 |
| 20260506223428 | 85 | 288 | 0.0 | 4.0 | 0.00 | 0.00 | 0.00 | 22 | 1012.8 |
| 20260506223330 | 85 | 288 | 0.0 | 5.0 | 0.00 | 0.00 | 0.00 | 20 | 1012.7 |
| 20260506223241 | 85 | 288 | 0.0 | 5.0 | 0.00 | 0.00 | 0.00 | 22 | 1012.7 |
| 20260506223122 | 84 | 289 | 0.0 | 6.0 | 0.00 | 0.00 | 0.00 | 24 | 1012.8 |
| 20260506223023 | 83 | 270 | 0.0 | 6.0 | 0.00 | 0.00 | 0.00 | 21 | 1012.8 |
| 20260506222930 | 84 | 270 | 0.0 | 6.0 | 0.00 | 0.00 | 0.00 | 20 | 1012.9 |
| 20260506222839 | 84 | 270 | 0.0 | 6.0 | 0.00 | 0.00 | 0.00 | 20 | 1012.9 |
| 20260506222721 | 84 | 187 | 1.0 | 6.0 | 0.00 | 0.00 | 0.00 | 19 | 1013.0 |
| 20260506222623 | 85 | 190 | 1.0 | 6.0 | 0.00 | 0.00 | 0.00 | 19 | 1012.9 |
| 20260506222526 | 85 | 190 | 2.0 | 6.0 | 0.00 | 0.00 | 0.00 | 19 | 1012.9 |
| 20260506222434 | 85 | 199 | 2.0 | 6.0 | 0.00 | 0.00 | 0.00 | 19 | 1013.0 |
| 20260506222319 | 85 | 198 | 1.0 | 5.0 | 0.00 | 0.00 | 0.00 | 19 | 1012.9 |
| 20260506222220 | 85 | 268 | 0.0 | 5.0 | 0.00 | 0.00 | 0.00 | 19 | 1012.9 |
| 20260506222149 | 85 | 269 | 0.0 | 6.0 | 0.00 | 0.00 | 0.00 | 19 | 1012.9 |
| 20260506222037 | 85 | 273 | 0.0 | 6.0 | 0.00 | 0.00 | 0.00 | 20 | 1012.9 |
| 20260506221938 | 85 | 274 | 0.0 | 6.0 | 0.00 | 0.00 | 0.00 | 19 | 1012.9 |
| 20260506221846 | 85 | 274 | 1.0 | 6.0 | 0.00 | 0.00 | 0.00 | 19 | 1013.0 |
| 20260506221728 | 85 | 274 | 1.0 | 6.0 | 0.00 | 0.00 | 0.00 | 19 | 1012.9 |
| 20260506221631 | 85 | 275 | 1.0 | 6.0 | 0.00 | 0.00 | 0.00 | 19 | 1013.0 |
| 20260506221516 | 85 | 274 | 2.0 | 6.0 | 0.00 | 0.00 | 0.00 | 19 | 1013.1 |
| 20260506221424 | 85 | 273 | 2.0 | 6.0 | 0.00 | 0.00 | 0.00 | 19 | 1013.1 |
| 20260506221326 | 85 | 276 | 1.0 | 6.0 | 0.00 | 0.00 | 0.00 | 20 | 1013.0 |
| 20260506221228 | 84 | 278 | 0.0 | 2.0 | 0.00 | 0.00 | 0.00 | 19 | 1013.0 |
| 20260506221137 | 85 | 276 | 0.0 | 0.0 | 0.00 | 0.00 | 0.00 | 19 | 1013.1 |
| 20260506221022 | 85 | 181 | 0.0 | 0.0 | 0.00 | 0.00 | 0.00 | 21 | 1013.0 |
| 20260506220943 | 85 | 181 | 0.0 | 0.0 | 0.00 | 0.00 | 0.00 | 20 | 1013.0 |
| 20260506220851 | 85 | 181 | 0.0 | 0.0 | 0.00 | 0.00 | 0.00 | 20 | 1013.0 |
| 20260506220717 | 85 | 110 | 0.0 | 0.0 | 0.00 | 0.00 | 0.00 | 21 | 1013.0 |
| 20260506220620 | 85 | 109 | 0.0 | 0.0 | 0.00 | 0.00 | 0.00 | 19 | 1013.0 |
| 20260506220522 | 86 | 109 | 0.0 | 0.0 | 0.00 | 0.00 | 0.00 | 18 | 1013.0 |
| 20260506220431 | 86 | 109 | 0.0 | 0.0 | 0.00 | 0.00 | 0.00 | 18 | 1013.0 |
| 20260506220316 | 87 | 109 | 0.0 | 0.0 | 0.00 | 0.00 | 0.00 | 19 | 1013.0 |
| 20260506220218 | 87 | 109 | 0.0 | 0.0 | 0.00 | 0.00 | 0.00 | 21 | 1013.0 |
| 20260506220126 | 87 | 109 | 0.0 | 0.0 | 0.00 | 0.00 | 0.00 | 23 | 1013.0 |
| 20260506220041 | 86 | 109 | 0.0 | 0.0 | 0.00 | 0.00 | 0.00 | 22 | 1013.0 |
| 20260506215933 | 85 | 110 | 0.0 | 0.0 | 0.00 | 0.00 | 0.00 | 20 | 1013.1 |
| 20260506215856 | 85 | 110 | 0.0 | 1.0 | 0.00 | 0.00 | 0.00 | 20 | 1013.1 |
| 20260506215722 | 85 | 110 | 0.0 | 2.0 | 0.00 | 0.00 | 0.00 | 19 | 1013.2 |
| 20260506215623 | 85 | 110 | 0.0 | 2.0 | 0.00 | 0.00 | 0.00 | 19 | 1013.2 |
| 20260506215530 | 86 | 110 | 0.0 | 2.0 | 0.00 | 0.00 | 0.00 | 19 | 1013.3 |
| 20260506215438 | 86 | 110 | 0.0 | 2.0 | 0.00 | 0.00 | 0.00 | 20 | 1013.3 |
| 20260506215321 | 86 | 109 | 0.0 | 2.0 | 0.00 | 0.00 | 0.00 | 20 | 1013.2 |
| 20260506215220 | 86 | 113 | 0.0 | 2.0 | 0.00 | 0.00 | 0.00 | 21 | 1013.3 |
| 20260506215130 | 86 | 113 | 0.0 | 2.0 | 0.00 | 0.00 | 0.00 | 21 | 1013.3 |
| 20260506215052 | 85 | 113 | 1.0 | 2.0 | 0.00 | 0.00 | 0.00 | 22 | 1013.3 |
| 20260506214940 | 85 | 113 | 1.0 | 2.0 | 0.00 | 0.00 | 0.00 | 21 | 1013.4 |
| 20260506214825 | 85 | 323 | 0.0 | 2.0 | 0.00 | 0.00 | 0.00 | 22 | 1013.4 |
| 20260506214734 | 85 | 323 | 0.0 | 1.0 | 0.00 | 0.00 | 0.00 | 21 | 1013.4 |
| 20260506214616 | 85 | 328 | 0.0 | 1.0 | 0.00 | 0.00 | 0.00 | 20 | 1013.4 |
| 20260506214538 | 85 | 328 | 0.0 | 1.0 | 0.00 | 0.00 | 0.00 | 19 | 1013.4 |
| 20260506214426 | 85 | 328 | 0.0 | 3.0 | 0.00 | 0.00 | 0.00 | 21 | 1013.4 |
| 20260506214326 | 85 | 328 | 0.0 | 3.0 | 0.00 | 0.00 | 0.00 | 22 | 1013.4 |
| 20260506214235 | 86 | 328 | 0.0 | 3.0 | 0.00 | 0.00 | 0.00 | 23 | 1013.5 |
| 20260506214141 | 86 | 328 | 0.0 | 3.0 | 0.00 | 0.00 | 0.00 | 22 | 1013.5 |
| 20260506214022 | 86 | 328 | 0.0 | 3.0 | 0.00 | 0.00 | 0.00 | 21 | 1013.6 |
| 20260506213931 | 85 | 328 | 0.0 | 3.0 | 0.00 | 0.00 | 0.00 | 19 | 1013.7 |
| 20260506213833 | 85 | 328 | 0.0 | 3.0 | 0.00 | 0.00 | 0.00 | 21 | 1013.7 |
| 20260506213735 | 86 | 328 | 0.0 | 3.0 | 0.00 | 0.00 | 0.00 | 19 | 1013.8 |
| 20260506213615 | 85 | 328 | 1.0 | 3.0 | 0.00 | 0.00 | 0.00 | 21 | 1013.7 |
| 20260506213527 | 84 | 329 | 1.0 | 3.0 | 0.00 | 0.00 | 0.00 | 21 | 1013.7 |
| 20260506213435 | 84 | 330 | 1.0 | 3.0 | 0.00 | 0.00 | 0.00 | 21 | 1013.8 |
| 20260506213343 | 84 | 329 | 0.0 | 3.0 | 0.00 | 0.00 | 0.00 | 21 | 1013.8 |
| 20260506213244 | 84 | 329 | 0.0 | 7.0 | 0.00 | 0.00 | 0.00 | 19 | 1013.8 |
| 20260506213152 | 85 | 329 | 0.0 | 7.0 | 0.00 | 0.00 | 0.00 | 20 | 1013.7 |
| 20260506213034 | 85 | 328 | 0.0 | 9.0 | 0.00 | 0.00 | 0.00 | 23 | 1013.9 |
| 20260506212935 | 85 | 328 | 0.0 | 9.0 | 0.00 | 0.00 | 0.00 | 21 | 1013.8 |
| 20260506212817 | 85 | 331 | 0.0 | 9.0 | 0.00 | 0.00 | 0.00 | 21 | 1013.8 |
| 20260506212729 | 85 | 331 | 0.0 | 9.0 | 0.00 | 0.00 | 0.00 | 21 | 1013.8 |
| 20260506212636 | 85 | 331 | 0.0 | 9.0 | 0.00 | 0.00 | 0.00 | 20 | 1013.8 |
| 20260506212516 | 85 | 331 | 2.0 | 10.0 | 0.00 | 0.00 | 0.00 | 21 | 1013.9 |
| 20260506212445 | 85 | 331 | 3.0 | 10.0 | 0.00 | 0.00 | 0.00 | 20 | 1013.9 |
| 20260506212326 | 85 | 316 | 3.0 | 10.0 | 0.00 | 0.00 | 0.00 | 24 | 1013.9 |
| 20260506212254 | 85 | 328 | 2.0 | 10.0 | 0.00 | 0.00 | 0.00 | 21 | 1013.9 |
| 20260506212135 | 85 | 345 | 1.0 | 10.0 | 0.00 | 0.00 | 0.00 | 21 | 1013.9 |
| 20260506212020 | 85 | 353 | 1.0 | 10.0 | 0.00 | 0.00 | 0.00 | 22 | 1014.0 |
| 20260506211923 | 85 | 354 | 3.0 | 10.0 | 0.00 | 0.00 | 0.00 | 22 | 1014.0 |
| 20260506211832 | 85 | 354 | 5.0 | 10.0 | 0.00 | 0.00 | 0.00 | 21 | 1014.0 |
| 20260506211732 | 85 | 350 | 2.0 | 10.0 | 0.00 | 0.00 | 0.00 | 22 | 1014.0 |
| 20260506211642 | 85 | 357 | 1.0 | 8.0 | 0.00 | 0.00 | 0.00 | 26 | 1014.0 |
| 20260506211523 | 84 | 351 | 2.0 | 10.0 | 0.00 | 0.00 | 0.00 | 25 | 1014.0 |
| 20260506211426 | 84 | 352 | 3.0 | 10.0 | 0.00 | 0.00 | 0.00 | 23 | 1014.0 |
| 20260506211332 | 84 | 352 | 3.0 | 10.0 | 0.00 | 0.00 | 0.00 | 21 | 1013.9 |
| 20260506211242 | 84 | 360 | 1.0 | 10.0 | 0.00 | 0.00 | 0.00 | 20 | 1013.9 |
| 20260506211125 | 84 | 312 | 1.0 | 10.0 | 0.00 | 0.00 | 0.00 | 20 | 1014.0 |
| 20260506211027 | 84 | 294 | 1.0 | 10.0 | 0.00 | 0.00 | 0.00 | 20 | 1014.0 |
| 20260506210927 | 84 | 297 | 1.0 | 10.0 | 0.00 | 0.00 | 0.00 | 20 | 1014.0 |
| 20260506210821 | 84 | 295 | 2.0 | 10.0 | 0.00 | 0.00 | 0.00 | 21 | 1014.0 |
| 20260506210723 | 84 | 295 | 2.0 | 10.0 | 0.00 | 0.00 | 0.00 | 21 | 1014.1 |
| 20260506210631 | 84 | 1 | 0.0 | 6.0 | 0.00 | 0.00 | 0.00 | 22 | 1014.0 |
| 20260506210532 | 84 | 1 | 0.0 | 6.0 | 0.00 | 0.00 | 0.00 | 23 | 1014.1 |
| 20260506210434 | 84 | 1 | 1.0 | 6.0 | 0.00 | 0.00 | 0.00 | 26 | 1014.2 |
| 20260506210316 | 84 | 1 | 1.0 | 6.0 | 0.00 | 0.00 | 0.00 | 24 | 1014.1 |
| 20260506210224 | 84 | 1 | 1.0 | 6.0 | 0.00 | 0.00 | 0.00 | 23 | 1014.1 |
| 20260506210130 | 84 | 344 | 2.0 | 6.0 | 0.00 | 0.00 | 0.00 | 23 | 1014.2 |
| 20260506210029 | 84 | 289 | 2.0 | 6.0 | 0.00 | 0.00 | 0.00 | 20 | 1014.1 |
| 20260506205919 | 85 | 285 | 1.0 | 6.0 | 0.00 | 0.00 | 0.00 | 19 | 1014.2 |
| 20260506205826 | 85 | 271 | 0.0 | 0.0 | 0.00 | 0.00 | 0.00 | 20 | 1014.3 |
| 20260506205728 | 86 | 342 | 0.0 | 0.0 | 0.00 | 0.00 | 0.00 | 19 | 1014.3 |
| 20260506205630 | 86 | 343 | 0.0 | 0.0 | 0.00 | 0.00 | 0.00 | 19 | 1014.3 |
| 20260506205515 | 86 | 343 | 0.0 | 0.0 | 0.00 | 0.00 | 0.00 | 20 | 1014.3 |
| 20260506205444 | 86 | 343 | 0.0 | 0.0 | 0.00 | 0.00 | 0.00 | 23 | 1014.4 |
| 20260506205325 | 87 | 343 | 0.0 | 0.0 | 0.00 | 0.00 | 0.00 | 21 | 1014.4 |
| 20260506205253 | 86 | 22 | 0.0 | 0.0 | 0.00 | 0.00 | 0.00 | 21 | 1014.3 |
| 20260506205202 | 86 | 24 | 0.0 | 0.0 | 0.00 | 0.00 | 0.00 | 21 | 1014.3 |
| 20260506205022 | 86 | 24 | 0.0 | 0.0 | 0.00 | 0.00 | 0.00 | 20 | 1014.4 |
| 20260506204924 | 86 | 25 | 0.0 | 0.0 | 0.00 | 0.00 | 0.00 | 23 | 1014.4 |
| 20260506204826 | 86 | 25 | 0.0 | 1.0 | 0.00 | 0.00 | 0.00 | 23 | 1014.4 |
| 20260506204719 | 86 | 24 | 0.0 | 1.0 | 0.00 | 0.00 | 0.00 | 23 | 1014.4 |
| 20260506204619 | 85 | 26 | 0.0 | 1.0 | 0.00 | 0.00 | 0.00 | 22 | 1014.3 |
| 20260506204527 | 85 | 15 | 0.0 | 6.0 | 0.00 | 0.00 | 0.00 | 22 | 1014.3 |
| 20260506204429 | 85 | 255 | 0.0 | 6.0 | 0.00 | 0.00 | 0.00 | 21 | 1014.4 |
| 20260506204337 | 84 | 252 | 0.0 | 6.0 | 0.00 | 0.00 | 0.00 | 22 | 1014.4 |
| 20260506204240 | 84 | 252 | 0.0 | 6.0 | 0.00 | 0.00 | 0.00 | 22 | 1014.5 |
| 20260506204120 | 83 | 252 | 0.0 | 6.0 | 0.00 | 0.00 | 0.00 | 24 | 1014.3 |
| 20260506204033 | 82 | 252 | 0.0 | 6.0 | 0.00 | 0.00 | 0.00 | 25 | 1014.4 |
| 20260506203935 | 82 | 252 | 0.0 | 8.0 | 0.00 | 0.00 | 0.00 | 25 | 1014.3 |
| 20260506203816 | 82 | 252 | 1.0 | 8.0 | 0.00 | 0.00 | 0.00 | 22 | 1014.4 |
| 20260506203745 | 82 | 252 | 1.0 | 8.0 | 0.00 | 0.00 | 0.00 | 20 | 1014.5 |
| 20260506203647 | 82 | 252 | 0.0 | 8.0 | 0.00 | 0.00 | 0.00 | 21 | 1014.6 |
| 20260506203535 | 82 | 250 | 1.0 | 8.0 | 0.00 | 0.00 | 0.00 | 22 | 1014.6 |
| 20260506203437 | 82 | 250 | 3.0 | 8.0 | 0.00 | 0.00 | 0.00 | 22 | 1014.7 |
| 20260506203329 | 82 | 250 | 2.0 | 8.0 | 0.00 | 0.00 | 0.00 | 23 | 1014.7 |
| 20260506203227 | 82 | 245 | 2.0 | 8.0 | 0.00 | 0.00 | 0.00 | 21 | 1014.7 |
| 20260506203136 | 82 | 245 | 2.0 | 8.0 | 0.00 | 0.00 | 0.00 | 21 | 1014.7 |
| 20260506203016 | 82 | 255 | 2.0 | 5.0 | 0.00 | 0.00 | 0.00 | 20 | 1014.7 |
| 20260506202918 | 82 | 257 | 2.0 | 5.0 | 0.00 | 0.00 | 0.00 | 21 | 1014.7 |
| 20260506202821 | 82 | 257 | 1.0 | 5.0 | 0.00 | 0.00 | 0.00 | 22 | 1014.7 |
| 20260506202749 | 82 | 269 | 2.0 | 5.0 | 0.00 | 0.00 | 0.00 | 20 | 1014.7 |
| 20260506202635 | 82 | 269 | 1.0 | 5.0 | 0.00 | 0.00 | 0.00 | 21 | 1014.7 |
| 20260506202516 | 82 | 262 | 0.0 | 1.0 | 0.00 | 0.00 | 0.00 | 21 | 1014.7 |
| 20260506202426 | 82 | 262 | 0.0 | 1.0 | 0.00 | 0.00 | 0.00 | 21 | 1014.7 |
| 20260506202326 | 82 | 262 | 0.0 | 1.0 | 0.00 | 0.00 | 0.00 | 21 | 1014.7 |
| 20260506202253 | 82 | 242 | 0.0 | 1.0 | 0.00 | 0.00 | 0.00 | 21 | 1014.7 |
| 20260506202142 | 82 | 231 | 0.0 | 0.0 | 0.00 | 0.00 | 0.00 | 22 | 1014.7 |
| 20260506202027 | 82 | 299 | 0.0 | 1.0 | 0.00 | 0.00 | 0.00 | 21 | 1014.6 |
| 20260506201929 | 82 | 299 | 0.0 | 1.0 | 0.00 | 0.00 | 0.00 | 21 | 1014.6 |
| 20260506201830 | 82 | 299 | 0.0 | 1.0 | 0.00 | 0.00 | 0.00 | 21 | 1014.7 |
| 20260506201740 | 83 | 299 | 0.0 | 1.0 | 0.00 | 0.00 | 0.00 | 20 | 1014.7 |
| 20260506201641 | 83 | 299 | 0.0 | 1.0 | 0.00 | 0.00 | 0.00 | 22 | 1014.7 |
| 20260506201522 | 82 | 264 | 0.0 | 1.0 | 0.00 | 0.00 | 0.00 | 22 | 1014.7 |
| 20260506201431 | 82 | 266 | 0.0 | 1.0 | 0.00 | 0.00 | 0.00 | 24 | 1014.7 |
| 20260506201317 | 82 | 266 | 0.0 | 1.0 | 0.00 | 0.00 | 0.00 | 21 | 1014.8 |
| 20260506201218 | 82 | 266 | 0.0 | 0.0 | 0.00 | 0.00 | 0.00 | 21 | 1014.7 |
| 20260506201120 | 82 | 266 | 0.0 | 0.0 | 0.00 | 0.00 | 0.00 | 21 | 1014.7 |
| 20260506201029 | 83 | 266 | 0.0 | 0.0 | 0.00 | 0.00 | 0.00 | 21 | 1014.7 |
| 20260506200932 | 82 | 269 | 0.0 | 0.0 | 0.00 | 0.00 | 0.00 | 23 | 1014.8 |
| 20260506200819 | 81 | 219 | 0.0 | 0.0 | 0.00 | 0.00 | 0.00 | 23 | 1014.7 |
| 20260506200729 | 81 | 219 | 0.0 | 0.0 | 0.00 | 0.00 | 0.00 | 22 | 1014.8 |
| 20260506200629 | 81 | 219 | 0.0 | 0.0 | 0.00 | 0.00 | 0.00 | 23 | 1014.7 |
| 20260506200559 | 81 | 219 | 0.0 | 0.0 | 0.00 | 0.00 | 0.00 | 21 | 1014.7 |
| 20260506200439 | 81 | 219 | 0.0 | 9.0 | 0.00 | 0.00 | 0.00 | 22 | 1014.7 |
| 20260506200319 | 82 | 219 | 0.0 | 9.0 | 0.00 | 0.00 | 0.00 | 22 | 1014.7 |
| 20260506200249 | 82 | 219 | 0.0 | 9.0 | 0.00 | 0.00 | 0.00 | 22 | 1014.7 |
| 20260506200129 | 82 | 219 | 0.0 | 9.0 | 0.00 | 0.00 | 0.00 | 22 | 1014.8 |
| 20260506200034 | 82 | 219 | 0.0 | 9.0 | 0.00 | 0.00 | 0.00 | 21 | 1014.8 |
| 20260506195924 | 82 | 215 | 0.0 | 9.0 | 0.00 | 0.00 | 0.00 | 22 | 1014.7 |
| 20260506195825 | 81 | 214 | 0.0 | 9.0 | 0.00 | 0.00 | 0.00 | 22 | 1014.8 |
| 20260506195735 | 81 | 255 | 2.0 | 9.0 | 0.00 | 0.00 | 0.00 | 22 | 1014.9 |
| 20260506195616 | 81 | 256 | 2.0 | 9.0 | 0.00 | 0.00 | 0.00 | 22 | 1014.9 |
| 20260506195538 | 81 | 198 | 0.0 | 5.0 | 0.00 | 0.00 | 0.00 | 23 | 1014.9 |
| 20260506195429 | 81 | 198 | 0.0 | 5.0 | 0.00 | 0.00 | 0.00 | 22 | 1014.9 |
| 20260506195330 | 81 | 198 | 0.0 | 5.0 | 0.00 | 0.00 | 0.00 | 22 | 1014.9 |
| 20260506195238 | 81 | 198 | 0.0 | 5.0 | 0.00 | 0.00 | 0.00 | 22 | 1014.9 |
| 20260506195120 | 81 | 197 | 0.0 | 6.0 | 0.00 | 0.00 | 0.00 | 23 | 1014.8 |
| 20260506195021 | 81 | 197 | 1.0 | 6.0 | 0.00 | 0.00 | 0.00 | 23 | 1014.9 |
| 20260506194930 | 81 | 198 | 1.0 | 6.0 | 0.00 | 0.00 | 0.00 | 23 | 1014.8 |
| 20260506194831 | 80 | 198 | 0.0 | 7.0 | 0.00 | 0.00 | 0.00 | 23 | 1014.9 |
| 20260506194716 | 81 | 198 | 2.0 | 7.0 | 0.00 | 0.00 | 0.00 | 23 | 1014.9 |
| 20260506194626 | 81 | 198 | 2.0 | 7.0 | 0.00 | 0.00 | 0.00 | 22 | 1014.8 |
| 20260506194546 | 81 | 196 | 2.0 | 7.0 | 0.00 | 0.00 | 0.00 | 23 | 1014.9 |
| 20260506194434 | 81 | 204 | 2.0 | 7.0 | 0.00 | 0.00 | 0.00 | 23 | 1014.9 |
| 20260506194315 | 81 | 204 | 2.0 | 7.0 | 0.00 | 0.00 | 0.00 | 22 | 1014.9 |
| 20260506194218 | 81 | 205 | 3.0 | 7.0 | 0.00 | 0.00 | 0.00 | 22 | 1015.0 |
| 20260506194151 | 82 | 206 | 4.0 | 7.0 | 0.00 | 0.00 | 0.00 | 22 | 1015.0 |
| 20260506194032 | 82 | 205 | 4.0 | 7.0 | 0.00 | 0.00 | 0.00 | 23 | 1015.0 |
| 20260506193915 | 81 | 203 | 2.0 | 7.0 | 0.00 | 0.00 | 0.00 | 23 | 1015.0 |
| 20260506193816 | 81 | 204 | 2.0 | 7.0 | 0.00 | 0.00 | 0.00 | 23 | 1015.0 |
| 20260506193726 | 81 | 204 | 2.0 | 7.0 | 0.00 | 0.00 | 0.00 | 23 | 1015.1 |
| 20260506193628 | 81 | 198 | 1.0 | 5.0 | 0.00 | 0.00 | 0.00 | 23 | 1015.1 |
| 20260506193535 | 81 | 157 | 0.0 | 5.0 | 0.00 | 0.00 | 0.00 | 23 | 1015.1 |
| 20260506193420 | 81 | 157 | 0.0 | 5.0 | 0.00 | 0.00 | 0.00 | 23 | 1015.1 |
| 20260506193323 | 81 | 157 | 1.0 | 5.0 | 0.00 | 0.00 | 0.00 | 24 | 1015.1 |
| 20260506193233 | 81 | 157 | 1.0 | 5.0 | 0.00 | 0.00 | 0.00 | 24 | 1015.1 |
| 20260506193115 | 82 | 162 | 0.0 | 3.0 | 0.00 | 0.00 | 0.00 | 24 | 1015.1 |
| 20260506193016 | 82 | 162 | 0.0 | 3.0 | 0.00 | 0.00 | 0.00 | 23 | 1015.1 |
| 20260506192924 | 82 | 162 | 1.0 | 3.0 | 0.00 | 0.00 | 0.00 | 22 | 1015.1 |
| 20260506192829 | 82 | 162 | 0.0 | 2.0 | 0.00 | 0.00 | 0.00 | 22 | 1015.1 |
| 20260506192738 | 82 | 162 | 0.0 | 2.0 | 0.00 | 0.00 | 0.00 | 23 | 1015.1 |
| 20260506192620 | 82 | 161 | 0.0 | 1.0 | 0.00 | 0.00 | 0.00 | 24 | 1015.1 |
| 20260506192542 | 81 | 161 | 0.0 | 1.0 | 0.00 | 0.00 | 0.00 | 25 | 1015.1 |
| 20260506192430 | 80 | 161 | 0.0 | 0.0 | 0.00 | 0.00 | 0.00 | 23 | 1015.1 |
| 20260506192332 | 80 | 161 | 0.0 | 0.0 | 0.00 | 0.00 | 0.00 | 24 | 1015.3 |
| 20260506192218 | 80 | 335 | 0.0 | 3.0 | 0.00 | 0.00 | 0.00 | 23 | 1015.3 |
| 20260506192120 | 80 | 345 | 0.0 | 4.0 | 0.00 | 0.00 | 0.00 | 23 | 1015.3 |
| 20260506192029 | 80 | 350 | 0.0 | 4.0 | 0.00 | 0.00 | 0.00 | 23 | 1015.3 |
| 20260506191959 | 80 | 350 | 0.0 | 4.0 | 0.00 | 0.00 | 0.00 | 23 | 1015.3 |
| 20260506191837 | 80 | 350 | 0.0 | 5.0 | 0.00 | 0.00 | 0.00 | 24 | 1015.3 |
| 20260506191716 | 80 | 281 | 0.0 | 7.0 | 0.00 | 0.00 | 0.00 | 24 | 1015.3 |
| 20260506191625 | 80 | 279 | 0.0 | 7.0 | 0.00 | 0.00 | 0.00 | 23 | 1015.3 |
| 20260506191526 | 80 | 279 | 0.0 | 7.0 | 0.00 | 0.00 | 0.00 | 26 | 1015.2 |
| 20260506191438 | 80 | 278 | 1.0 | 7.0 | 0.00 | 0.00 | 0.00 | 24 | 1015.2 |
| 20260506191321 | 80 | 277 | 0.0 | 7.0 | 0.00 | 0.00 | 0.00 | 24 | 1015.3 |
| 20260506191223 | 80 | 275 | 1.0 | 7.0 | 0.00 | 0.00 | 0.00 | 24 | 1015.3 |
| 20260506191131 | 80 | 260 | 2.0 | 7.0 | 0.00 | 0.00 | 0.00 | 23 | 1015.3 |
| 20260506191034 | 80 | 257 | 2.0 | 7.0 | 0.00 | 0.00 | 0.00 | 24 | 1015.2 |
| 20260506190916 | 80 | 259 | 0.0 | 4.0 | 0.00 | 0.00 | 0.00 | 25 | 1015.2 |
| 20260506190822 | 79 | 257 | 0.0 | 2.0 | 0.00 | 0.00 | 0.00 | 25 | 1015.2 |
| 20260506190732 | 79 | 257 | 0.0 | 2.0 | 0.00 | 0.00 | 0.00 | 25 | 1015.3 |
| 20260506190635 | 79 | 258 | 0.0 | 1.0 | 0.00 | 0.00 | 0.00 | 25 | 1015.2 |
| 20260506190517 | 79 | 258 | 0.0 | 6.0 | 0.00 | 0.00 | 0.00 | 26 | 1015.3 |
| 20260506190420 | 79 | 258 | 0.0 | 6.0 | 0.00 | 0.00 | 0.00 | 26 | 1015.2 |
| 20260506190330 | 79 | 258 | 0.0 | 6.0 | 0.00 | 0.00 | 0.00 | 26 | 1015.2 |
| 20260506190235 | 79 | 258 | 0.0 | 6.0 | 0.00 | 0.00 | 0.00 | 27 | 1015.2 |
| 20260506190116 | 79 | 258 | 0.0 | 6.0 | 0.00 | 0.00 | 0.00 | 27 | 1015.3 |
| 20260506190037 | 79 | 258 | 0.0 | 6.0 | 0.00 | 0.00 | 0.00 | 28 | 1015.3 |
| 20260506185925 | 79 | 258 | 0.0 | 7.0 | 0.00 | 0.00 | 0.00 | 28 | 1015.3 |
| 20260506185833 | 78 | 258 | 1.0 | 8.0 | 0.00 | 0.00 | 0.00 | 26 | 1015.4 |
| 20260506185716 | 79 | 258 | 1.0 | 8.0 | 0.00 | 0.00 | 0.00 | 25 | 1015.4 |
| 20260506185622 | 79 | 247 | 0.0 | 8.0 | 0.00 | 0.00 | 0.00 | 26 | 1015.3 |
| 20260506185532 | 79 | 247 | 1.0 | 8.0 | 0.00 | 0.00 | 0.00 | 25 | 1015.4 |
| 20260506185434 | 79 | 248 | 1.0 | 8.0 | 0.00 | 0.00 | 0.00 | 25 | 1015.5 |
| 20260506185334 | 79 | 248 | 2.0 | 8.0 | 0.00 | 0.00 | 0.00 | 25 | 1015.5 |
| 20260506185236 | 79 | 248 | 4.0 | 8.0 | 0.00 | 0.00 | 0.00 | 25 | 1015.5 |
| 20260506185117 | 80 | 250 | 4.0 | 8.0 | 0.00 | 0.00 | 0.00 | 25 | 1015.6 |
| 20260506185023 | 80 | 248 | 2.0 | 8.0 | 0.00 | 0.00 | 0.00 | 26 | 1015.5 |
| 20260506184924 | 79 | 238 | 0.0 | 5.0 | 0.00 | 0.00 | 0.00 | 25 | 1015.6 |
| 20260506184833 | 80 | 238 | 0.0 | 6.0 | 0.00 | 0.00 | 0.00 | 25 | 1015.6 |
| 20260506184715 | 79 | 238 | 0.0 | 7.0 | 0.00 | 0.00 | 0.00 | 26 | 1015.6 |
| 20260506184617 | 79 | 238 | 0.0 | 7.0 | 0.00 | 0.00 | 0.00 | 25 | 1015.6 |
| 20260506184519 | 79 | 238 | 0.0 | 7.0 | 0.00 | 0.00 | 0.00 | 26 | 1015.6 |
| 20260506184450 | 79 | 236 | 0.0 | 7.0 | 0.00 | 0.00 | 0.00 | 26 | 1015.6 |
| 20260506184329 | 79 | 236 | 0.0 | 7.0 | 0.00 | 0.00 | 0.00 | 27 | 1015.6 |
| 20260506184237 | 79 | 236 | 1.0 | 7.0 | 0.00 | 0.00 | 0.00 | 26 | 1015.8 |
| 20260506184117 | 79 | 235 | 2.0 | 7.0 | 0.00 | 0.00 | 0.00 | 26 | 1015.8 |
| 20260506184019 | 79 | 233 | 3.0 | 7.0 | 0.00 | 0.00 | 0.00 | 26 | 1015.7 |
| 20260506183928 | 79 | 228 | 3.0 | 7.0 | 0.00 | 0.00 | 0.00 | 25 | 1015.8 |
| 20260506183830 | 79 | 181 | 1.0 | 7.0 | 0.00 | 0.00 | 0.00 | 26 | 1015.8 |
| 20260506183716 | 79 | 165 | 2.0 | 7.0 | 0.00 | 0.00 | 0.00 | 25 | 1015.8 |
| 20260506183645 | 79 | 165 | 3.0 | 7.0 | 0.00 | 0.00 | 0.00 | 26 | 1015.9 |
| 20260506183524 | 79 | 165 | 3.0 | 7.0 | 0.00 | 0.00 | 0.00 | 26 | 1015.8 |
| 20260506183433 | 79 | 155 | 2.0 | 7.0 | 0.00 | 0.00 | 0.00 | 25 | 1015.9 |
| 20260506183335 | 79 | 187 | 2.0 | 7.0 | 0.00 | 0.00 | 0.00 | 25 | 1015.8 |
| 20260506183216 | 79 | 188 | 1.0 | 7.0 | 0.00 | 0.00 | 0.00 | 25 | 1015.9 |
| 20260506183122 | 79 | 188 | 0.0 | 6.0 | 0.00 | 0.00 | 0.00 | 25 | 1015.8 |
| 20260506183051 | 79 | 188 | 0.0 | 6.0 | 0.00 | 0.00 | 0.00 | 25 | 1015.8 |
| 20260506182932 | 79 | 187 | 0.0 | 6.0 | 0.00 | 0.00 | 0.00 | 26 | 1015.8 |
| 20260506182818 | 79 | 187 | 0.0 | 6.0 | 0.00 | 0.00 | 0.00 | 26 | 1015.8 |
| 20260506182720 | 79 | 186 | 1.0 | 6.0 | 0.00 | 0.00 | 0.00 | 25 | 1015.6 |
| 20260506182629 | 79 | 184 | 1.0 | 6.0 | 0.00 | 0.00 | 0.00 | 27 | 1015.7 |
| 20260506182529 | 79 | 179 | 2.0 | 6.0 | 0.00 | 0.00 | 0.00 | 27 | 1015.8 |
| 20260506182435 | 79 | 179 | 1.0 | 6.0 | 0.00 | 0.00 | 0.00 | 26 | 1015.8 |